GFSWCAN_prec_precacc_324.txt.gz
Total_Precipitation_Accumulation
3.01 3.27 3.30 2.89 3.01 2.80 2.61 2.44 2.84 3.23 3.01 2.85 2.56 2.84 2.97 3.14 3.83 5.08 4.78 3.17 4.22 4.73 2.06 1.11 1.03 0.77 1.13 1.59 2.45 2.05 2.39 2.65 3.43 3.90 3.14 2.40 1.47 1.04 0.86 0.76 0.89 1.34 2.16 2.40 2.53 2.73 1.50 0.25 0.23 0.62 0.67 0.38 0.89 1.46
2.89 3.14 2.90 2.55 2.66 2.65 2.51 2.32 2.30 2.42 2.73 2.81 2.52 2.59 2.79 2.81 3.28 4.43 5.87 4.15 3.75 6.03 3.42 1.11 0.85 0.67 0.49 0.82 1.39 2.37 2.39 1.82 2.42 3.01 2.68 2.18 1.91 1.53 1.01 1.06 1.07 1.37 1.52 1.63 1.75 1.67 0.78 0.31 0.34 0.36 0.34 0.58 1.07 1.23
2.65 2.87 2.88 2.51 2.37 2.27 2.28 2.35 2.32 2.12 2.02 2.46 2.47 2.39 2.65 2.69 2.97 3.73 5.08 4.18 5.55 6.66 4.38 1.59 1.22 0.77 0.44 0.44 0.77 2.54 1.48 1.40 1.81 1.84 2.56 2.24 1.87 1.20 1.22 1.05 1.08 0.89 0.83 1.48 1.13 0.56 0.34 0.33 0.27 0.23 0.24 0.33 0.96 0.93
2.52 2.72 2.75 2.69 2.29 2.11 1.91 2.13 2.48 2.27 2.19 2.15 2.49 2.35 2.46 2.83 3.15 3.49 4.52 4.29 5.70 6.39 4.90 2.10 0.92 0.92 0.86 0.55 0.59 0.88 0.74 0.95 1.46 1.93 3.10 2.79 1.77 1.06 1.07 0.77 0.82 1.20 1.32 1.18 0.99 0.58 0.47 0.31 0.27 0.33 0.38 0.53 0.58 0.86
2.50 2.77 2.83 2.64 2.33 2.07 1.91 2.10 2.57 2.53 2.65 2.59 2.61 2.76 2.81 3.22 3.47 3.74 4.12 3.74 4.13 4.25 3.77 2.45 1.12 0.71 0.92 0.82 0.76 0.70 0.93 1.11 1.61 2.69 2.97 1.87 0.93 1.08 0.81 0.84 1.11 0.94 1.39 1.41 1.40 0.73 0.88 0.57 0.62 0.74 0.69 0.52 0.61 0.47
2.64 2.63 2.50 2.47 2.20 2.18 2.12 2.41 2.53 2.63 2.72 3.20 2.96 3.04 3.29 3.69 4.22 6.50 8.44 5.24 3.39 3.39 5.19 3.33 2.19 1.00 1.18 1.27 1.41 1.39 1.08 1.47 1.93 2.35 1.80 1.13 0.78 1.54 1.65 0.91 0.55 0.39 0.86 1.32 1.57 1.04 1.04 0.93 0.88 0.54 0.53 0.56 0.61 0.58
2.51 2.52 2.42 2.28 2.04 2.21 2.47 2.52 2.60 2.53 2.94 3.35 3.18 2.66 2.76 3.91 5.24 6.58 4.47 3.14 2.33 3.93 6.20 3.72 2.48 1.58 1.44 1.57 1.66 2.32 2.15 2.31 1.98 2.18 1.54 0.73 0.68 1.95 1.84 0.62 0.23 0.31 0.42 0.78 1.46 1.63 1.76 1.30 1.34 0.96 0.47 0.36 0.44 0.28
2.52 2.40 2.25 2.11 1.94 1.94 2.52 2.75 2.78 3.06 3.47 3.78 3.36 3.01 3.57 5.13 5.88 4.18 1.71 2.08 2.67 4.54 4.77 3.84 2.74 2.86 1.95 2.14 1.88 1.72 2.50 2.98 2.89 2.16 1.20 0.86 0.89 1.55 1.41 0.16 0.09 0.21 0.25 0.36 0.50 0.41 0.79 0.84 0.64 0.52 0.26 0.11 0.09 0.14
2.35 2.18 2.20 1.95 1.73 1.78 2.12 2.50 2.97 3.61 3.98 4.75 5.09 5.54 7.67 8.93 7.09 3.33 2.11 3.29 3.76 5.59 4.88 2.57 1.76 2.83 2.15 2.16 2.13 1.85 2.08 3.15 2.47 2.22 1.21 1.24 1.29 1.28 0.45 0.20 0.19 0.16 0.22 0.26 0.20 0.29 0.29 0.32 0.27 0.18 0.18 0.19 0.27 0.24
2.36 2.15 2.12 1.85 1.71 1.78 2.13 2.62 3.26 4.45 5.81 7.00 8.63 10.02 10.30 6.07 2.95 3.57 6.72 7.65 7.42 5.65 3.55 1.72 0.94 2.08 2.42 2.06 2.66 2.93 2.97 2.12 2.13 1.08 1.05 1.41 0.76 0.50 0.40 0.37 0.28 0.17 0.10 0.16 0.38 0.51 0.45 0.33 0.28 0.22 0.23 0.24 0.24 0.21
2.28 2.23 1.86 1.78 1.90 2.19 2.71 3.21 4.12 6.19 8.15 8.61 8.50 6.69 5.12 3.58 4.06 5.51 6.95 5.67 4.45 3.06 1.47 0.83 0.70 1.15 1.53 1.81 2.08 2.37 2.74 2.06 1.83 0.93 1.07 1.23 0.89 0.73 0.69 0.66 0.48 0.40 0.24 0.17 0.17 0.19 0.22 0.28 0.36 0.35 0.23 0.15 0.13 0.20
2.22 1.85 1.58 1.72 1.81 2.09 2.46 3.64 4.83 5.76 5.79 4.46 4.15 4.69 5.40 5.35 5.71 5.28 4.15 2.64 1.36 0.82 0.61 0.53 0.96 1.37 1.65 2.01 2.78 2.76 2.25 1.87 1.30 1.23 1.70 1.15 1.03 0.66 0.50 0.61 0.36 0.21 0.16 0.16 0.23 0.31 0.34 0.32 0.29 0.37 0.40 0.45 0.53 0.61
1.96 1.52 1.34 1.48 1.64 2.07 2.98 3.72 3.31 3.04 2.85 3.32 3.79 5.03 5.05 4.60 4.34 3.02 1.89 1.27 0.68 0.45 0.49 0.52 1.37 1.67 1.77 2.24 3.32 3.38 2.84 1.83 1.43 2.59 1.69 1.03 0.78 0.93 0.75 0.51 0.34 0.23 0.31 0.45 0.38 0.28 0.28 0.27 0.31 0.51 0.73 0.84 0.82 0.78
1.71 1.55 1.52 1.64 1.83 2.38 3.44 3.59 3.89 3.59 3.63 3.84 3.84 3.78 2.91 2.19 1.50 0.90 0.65 0.60 0.49 0.46 0.61 0.87 1.37 1.56 1.72 2.19 2.24 2.42 2.01 2.00 2.18 1.65 1.40 1.49 1.25 0.94 0.64 0.61 0.67 0.73 0.66 0.72 0.86 0.56 0.48 0.46 0.47 0.61 0.80 0.87 0.83 0.91
1.60 1.55 1.75 2.18 2.32 2.74 3.36 3.84 3.98 3.83 3.62 3.14 2.26 1.75 1.12 1.05 0.77 0.58 0.50 0.48 0.55 0.83 1.28 1.87 1.82 1.69 2.04 2.52 1.70 1.78 1.85 1.69 1.31 1.63 1.88 1.49 1.07 0.87 0.89 0.87 0.88 1.19 1.11 1.09 1.27 1.32 1.19 1.02 0.87 1.12 1.16 1.03 0.89 0.92
1.65 2.31 2.51 2.23 2.29 2.90 3.68 4.22 4.41 3.79 3.12 1.79 1.53 1.32 1.18 1.06 0.87 0.79 0.71 0.82 0.94 1.24 1.76 2.37 2.17 1.75 1.88 1.47 1.56 1.33 1.35 1.76 1.91 1.70 1.43 0.91 0.78 0.83 0.86 0.89 0.91 1.06 1.16 1.21 1.22 1.36 1.52 1.60 1.64 1.73 1.72 1.51 1.40 1.21
2.21 3.08 2.37 2.25 2.75 3.60 3.96 3.82 3.25 3.38 2.23 1.50 1.34 0.96 1.08 1.19 0.89 0.92 0.94 1.00 1.09 1.62 1.89 2.05 2.19 1.57 1.47 1.18 1.02 1.23 1.89 1.92 1.45 1.18 0.82 0.67 0.82 0.87 0.80 0.74 0.79 0.82 1.02 1.12 1.15 1.25 1.39 1.52 1.45 1.29 1.38 1.52 1.30 1.28
2.48 1.91 1.86 2.25 2.92 3.73 3.37 2.38 2.32 1.84 1.41 1.21 1.24 1.25 0.85 1.01 1.10 1.01 0.88 0.97 1.13 1.35 1.47 1.68 1.36 0.93 0.97 1.05 1.34 1.67 1.68 1.34 0.94 0.87 0.84 0.88 0.90 0.97 0.81 0.65 0.78 0.82 0.88 1.14 1.08 1.18 1.19 1.03 0.88 1.07 1.09 1.15 1.04 1.17
1.91 1.49 1.45 1.60 1.85 2.70 2.85 1.88 1.26 1.47 1.33 1.11 1.03 0.91 0.81 1.07 1.31 1.23 1.11 1.00 0.91 0.95 1.47 1.27 1.21 0.91 0.95 1.23 1.43 1.21 1.05 0.92 0.97 1.09 1.16 1.23 1.12 0.95 0.91 0.87 0.85 0.99 0.94 1.13 1.02 1.01 1.09 1.01 0.85 0.82 0.88 0.85 0.80 0.95
2.02 1.95 1.49 1.34 2.04 3.07 2.26 1.36 0.81 1.01 1.31 1.11 0.93 0.77 0.78 1.11 1.11 0.96 0.74 0.67 0.73 1.07 1.29 1.21 1.13 1.23 1.39 1.37 1.47 1.40 1.14 0.96 0.79 0.83 1.10 1.30 1.41 1.08 1.02 1.02 1.05 1.02 0.91 0.95 1.04 1.05 1.01 0.97 0.93 0.70 0.62 0.74 0.81 0.85
2.10 2.27 1.79 1.68 2.40 2.17 1.59 1.15 1.13 0.82 1.07 1.11 0.79 0.59 0.84 0.62 0.61 0.59 0.50 0.34 0.62 0.97 1.09 1.22 1.32 1.29 1.34 1.45 1.31 1.06 0.98 0.79 0.82 0.77 0.81 0.97 1.16 0.84 0.92 0.97 0.81 0.71 0.62 0.73 0.78 1.01 0.87 0.74 0.77 0.67 0.58 0.58 0.68 0.77
1.51 1.45 1.91 1.69 2.03 1.78 1.70 0.76 0.68 0.86 1.06 1.12 0.72 0.56 0.66 0.65 0.52 0.45 0.37 0.59 1.01 1.25 1.19 1.19 1.16 1.11 0.97 1.09 1.16 1.04 1.18 0.82 0.78 0.75 0.81 0.74 0.79 0.78 0.87 0.94 0.70 0.62 0.59 0.60 0.59 0.76 0.70 0.55 0.58 0.60 0.60 0.55 0.48 0.46
1.05 1.22 1.67 1.59 1.69 1.20 0.92 0.67 0.79 0.91 1.10 1.13 0.65 0.61 0.64 0.58 0.47 0.33 0.67 0.77 1.16 1.41 1.17 0.93 1.01 1.05 1.02 1.19 0.92 0.85 1.02 0.81 0.92 1.11 1.05 0.96 0.90 0.86 0.76 0.79 0.68 0.61 0.62 0.62 0.52 0.53 0.54 0.46 0.48 0.53 0.52 0.47 0.41 0.36
1.26 1.68 1.68 1.58 1.08 0.76 0.55 0.65 0.72 0.73 0.82 0.86 0.76 0.76 0.67 0.52 0.32 0.51 0.76 1.00 1.21 0.85 0.69 0.83 0.82 0.95 1.03 0.90 0.94 1.00 1.21 0.95 0.93 1.06 1.13 0.91 0.74 0.81 0.65 0.65 0.48 0.48 0.52 0.51 0.44 0.49 0.52 0.47 0.40 0.40 0.41 0.40 0.36 0.43
2.80 1.99 1.23 1.02 0.69 0.63 0.53 0.44 0.44 0.55 0.82 0.76 0.87 1.00 0.94 0.64 0.90 0.87 0.91 1.18 0.85 0.73 0.74 0.78 0.78 0.78 0.80 0.93 0.99 0.99 1.02 1.03 1.04 1.03 1.20 1.00 0.87 0.79 0.68 0.62 0.54 0.52 0.46 0.49 0.59 0.60 0.55 0.54 0.51 0.40 0.27 0.29 0.43 0.40
1.66 0.91 0.90 0.68 0.66 0.64 0.69 0.65 0.70 0.60 0.59 0.55 0.66 0.58 0.41 0.54 0.74 1.11 1.13 1.20 0.89 0.89 0.91 0.94 0.91 0.75 0.75 0.80 0.76 0.70 0.76 0.82 0.85 0.77 1.05 0.94 0.97 1.02 0.90 0.75 0.68 0.67 0.45 0.48 0.59 0.55 0.50 0.44 0.40 0.40 0.44 0.38 0.33 0.37
0.95 0.50 0.33 0.25 0.30 0.36 0.41 0.47 0.52 0.57 0.70 0.69 0.61 0.49 0.65 0.78 0.79 0.88 0.80 0.78 0.78 0.89 0.80 0.77 0.71 0.75 0.80 0.77 0.72 0.68 0.57 0.52 0.57 0.74 0.87 0.79 0.78 0.89 1.01 1.11 1.02 0.89 0.57 0.49 0.49 0.53 0.56 0.51 0.49 0.46 0.49 0.48 0.45 0.48
0.55 0.25 0.26 0.26 0.29 0.31 0.38 0.41 0.57 0.61 0.57 0.47 0.56 0.61 0.73 0.67 0.84 0.90 0.83 0.85 0.70 0.59 0.47 0.42 0.39 0.39 0.45 0.51 0.55 0.51 0.47 0.50 0.56 0.53 0.51 0.57 0.65 0.83 0.83 0.75 0.67 0.58 0.58 0.61 0.58 0.54 0.53 0.55 0.52 0.53 0.53 0.56 0.51 0.42
0.42 0.32 0.32 0.41 0.40 0.46 0.65 0.62 0.66 0.49 0.41 0.44 0.53 0.57 0.62 0.71 0.98 0.86 0.73 0.59 0.56 0.47 0.41 0.37 0.37 0.25 0.23 0.19 0.20 0.28 0.40 0.44 0.50 0.50 0.43 0.54 0.65 0.72 0.57 0.51 0.47 0.48 0.53 0.58 0.61 0.63 0.59 0.53 0.47 0.47 0.54 0.62 0.56 0.54
0.26 0.26 0.41 0.33 0.39 0.53 0.66 0.41 0.49 0.35 0.24 0.22 0.25 0.34 0.45 0.82 1.04 0.81 0.58 0.47 0.41 0.43 0.40 0.33 0.31 0.27 0.26 0.24 0.21 0.22 0.36 0.39 0.41 0.53 0.54 0.46 0.53 0.52 0.45 0.45 0.46 0.46 0.51 0.59 0.69 0.75 0.76 0.73 0.73 0.78 0.68 0.60 0.65 0.68
0.15 0.22 0.30 0.33 0.55 0.76 0.57 0.47 0.45 0.34 0.25 0.19 0.17 0.27 0.51 0.71 0.72 0.50 0.37 0.43 0.36 0.33 0.27 0.23 0.25 0.26 0.24 0.28 0.37 0.38 0.43 0.37 0.28 0.31 0.39 0.42 0.41 0.42 0.40 0.38 0.41 0.47 0.51 0.55 0.59 0.70 0.82 0.83 0.86 0.84 0.76 0.64 0.61 0.56
0.22 0.29 0.32 0.35 0.62 0.61 0.57 0.61 0.48 0.46 0.40 0.32 0.45 0.42 0.50 0.45 0.55 0.70 0.46 0.38 0.35 0.27 0.29 0.30 0.31 0.35 0.37 0.44 0.49 0.49 0.44 0.38 0.30 0.30 0.30 0.32 0.39 0.40 0.36 0.31 0.33 0.38 0.41 0.42 0.46 0.56 0.62 0.74 0.92 0.81 0.72 0.72 0.68 0.63
0.38 0.29 0.32 0.37 0.43 0.42 0.37 0.47 0.40 0.49 0.50 0.57 0.63 0.46 0.40 0.41 0.59 0.76 0.48 0.40 0.54 0.46 0.42 0.47 0.50 0.48 0.50 0.48 0.48 0.42 0.35 0.35 0.32 0.33 0.32 0.32 0.33 0.33 0.32 0.31 0.30 0.31 0.31 0.32 0.35 0.40 0.43 0.50 0.63 0.71 0.77 0.79 0.83 0.81

GFSWCAN_prec_precacc_327.txt.gz
Total_Precipitation_Accumulation
3.01 3.28 3.30 2.90 3.02 2.80 2.62 2.46 2.86 3.24 3.02 2.85 2.57 2.84 2.99 3.16 3.86 5.11 4.79 3.20 4.27 4.78 2.06 1.14 1.13 0.85 1.16 1.59 2.46 2.07 2.45 2.67 3.43 3.90 3.14 2.40 1.47 1.04 0.86 0.76 0.89 1.34 2.16 2.40 2.53 2.73 1.50 0.25 0.23 0.62 0.67 0.38 0.89 1.46
2.90 3.15 2.90 2.55 2.67 2.67 2.54 2.34 2.31 2.44 2.74 2.81 2.53 2.60 2.81 2.84 3.32 4.47 5.87 4.15 3.78 6.06 3.43 1.15 0.87 0.68 0.49 0.82 1.39 2.41 2.43 1.82 2.42 3.01 2.68 2.18 1.91 1.53 1.01 1.06 1.07 1.37 1.52 1.63 1.75 1.67 0.78 0.31 0.34 0.36 0.34 0.58 1.07 1.23
2.65 2.87 2.88 2.51 2.38 2.28 2.30 2.39 2.35 2.13 2.04 2.47 2.49 2.41 2.68 2.72 3.01 3.77 5.09 4.19 5.58 6.67 4.38 1.59 1.22 0.77 0.44 0.44 0.78 2.58 1.52 1.42 1.81 1.84 2.56 2.24 1.87 1.20 1.22 1.05 1.08 0.89 0.83 1.48 1.13 0.56 0.34 0.33 0.27 0.23 0.24 0.33 0.96 0.93
2.52 2.72 2.75 2.69 2.30 2.12 1.93 2.16 2.51 2.29 2.21 2.17 2.52 2.38 2.50 2.87 3.21 3.53 4.52 4.29 5.73 6.40 4.92 2.10 0.92 0.92 0.86 0.55 0.59 0.89 0.75 0.96 1.47 1.93 3.10 2.79 1.77 1.06 1.07 0.77 0.82 1.20 1.32 1.18 0.99 0.58 0.47 0.31 0.27 0.33 0.38 0.53 0.58 0.86
2.51 2.78 2.83 2.65 2.34 2.08 1.92 2.12 2.59 2.55 2.67 2.62 2.65 2.81 2.88 3.29 3.52 3.75 4.12 3.74 4.15 4.26 3.81 2.45 1.12 0.71 0.92 0.82 0.76 0.71 0.96 1.12 1.61 2.70 2.97 1.87 0.93 1.08 0.81 0.84 1.11 0.94 1.39 1.41 1.40 0.73 0.88 0.57 0.62 0.74 0.69 0.52 0.61 0.47
2.65 2.63 2.50 2.48 2.21 2.19 2.13 2.42 2.54 2.65 2.74 3.24 3.02 3.11 3.37 3.76 4.27 6.51 8.44 5.24 3.39 3.41 5.21 3.36 2.19 1.00 1.18 1.27 1.41 1.40 1.13 1.51 1.94 2.35 1.80 1.13 0.78 1.54 1.65 0.91 0.55 0.39 0.86 1.32 1.57 1.04 1.04 0.93 0.88 0.54 0.53 0.56 0.61 0.58
2.53 2.52 2.42 2.29 2.05 2.22 2.47 2.53 2.62 2.54 2.96 3.40 3.26 2.75 2.84 3.97 5.27 6.59 4.47 3.15 2.34 3.97 6.24 3.75 2.49 1.59 1.45 1.63 1.68 2.34 2.20 2.40 2.05 2.21 1.54 0.73 0.68 1.95 1.84 0.62 0.23 0.31 0.42 0.78 1.46 1.63 1.76 1.30 1.34 0.96 0.47 0.36 0.44 0.28
2.53 2.42 2.27 2.12 1.95 1.95 2.53 2.76 2.80 3.08 3.51 3.85 3.44 3.11 3.65 5.17 5.88 4.18 1.71 2.10 2.72 4.58 4.84 3.89 2.76 2.95 2.07 2.38 2.07 1.81 2.61 3.11 3.04 2.27 1.23 0.86 0.89 1.55 1.41 0.16 0.09 0.21 0.25 0.36 0.50 0.41 0.79 0.84 0.64 0.52 0.26 0.11 0.09 0.14
2.37 2.20 2.22 1.96 1.74 1.79 2.13 2.51 2.98 3.68 4.05 4.85 5.18 5.68 7.82 8.98 7.10 3.33 2.11 3.36 4.04 5.68 4.95 2.59 1.77 2.95 2.41 2.34 2.38 2.03 2.29 3.38 2.65 2.32 1.23 1.24 1.29 1.28 0.45 0.20 0.19 0.16 0.22 0.26 0.20 0.29 0.29 0.32 0.27 0.18 0.18 0.19 0.27 0.24
2.40 2.19 2.16 1.86 1.72 1.79 2.14 2.63 3.29 4.57 5.93 7.12 8.80 10.13 10.33 6.07 2.95 3.58 6.73 7.74 7.69 5.80 3.63 1.75 0.95 2.23 2.83 2.30 2.89 3.19 3.16 2.29 2.26 1.13 1.07 1.42 0.76 0.50 0.40 0.37 0.28 0.17 0.10 0.16 0.38 0.51 0.45 0.33 0.28 0.22 0.23 0.24 0.24 0.21
2.31 2.27 1.89 1.80 1.92 2.20 2.72 3.23 4.17 6.34 8.36 8.75 8.55 6.70 5.12 3.59 4.08 5.53 6.95 5.71 4.54 3.18 1.49 0.84 0.72 1.26 1.77 2.17 2.22 2.48 2.90 2.18 1.88 0.94 1.07 1.23 0.89 0.73 0.69 0.66 0.48 0.40 0.24 0.17 0.17 0.19 0.22 0.28 0.36 0.35 0.23 0.15 0.13 0.20
2.25 1.88 1.61 1.75 1.83 2.10 2.48 3.68 4.88 5.88 5.90 4.47 4.15 4.69 5.41 5.42 5.76 5.31 4.16 2.68 1.48 0.88 0.62 0.53 0.97 1.49 1.78 2.25 2.98 2.89 2.38 1.94 1.31 1.23 1.70 1.15 1.03 0.66 0.50 0.61 0.36 0.21 0.16 0.16 0.23 0.31 0.34 0.32 0.29 0.37 0.40 0.45 0.53 0.61
1.99 1.55 1.36 1.51 1.66 2.08 3.01 3.75 3.33 3.05 2.85 3.32 3.79 5.03 5.05 4.82 4.47 3.05 1.90 1.27 0.73 0.50 0.50 0.53 1.40 1.73 1.92 2.30 3.41 3.47 2.86 1.85 1.43 2.59 1.69 1.03 0.78 0.93 0.75 0.51 0.34 0.23 0.31 0.45 0.38 0.28 0.28 0.27 0.31 0.51 0.73 0.84 0.82 0.78
1.73 1.56 1.55 1.68 1.86 2.39 3.47 3.61 3.90 3.59 3.63 3.84 3.84 3.78 2.92 2.33 1.57 0.90 0.66 0.60 0.49 0.46 0.61 0.87 1.38 1.58 1.85 2.25 2.29 2.44 2.02 2.00 2.18 1.65 1.40 1.49 1.25 0.94 0.64 0.61 0.67 0.73 0.66 0.72 0.86 0.56 0.48 0.46 0.47 0.61 0.80 0.87 0.83 0.91
1.61 1.57 1.77 2.22 2.34 2.76 3.39 3.86 3.99 3.83 3.62 3.14 2.26 1.75 1.12 1.07 0.78 0.58 0.50 0.48 0.55 0.84 1.29 1.87 1.82 1.69 2.10 2.71 1.82 1.80 1.86 1.69 1.31 1.63 1.88 1.49 1.07 0.87 0.89 0.87 0.88 1.19 1.11 1.09 1.27 1.32 1.19 1.02 0.87 1.12 1.16 1.03 0.89 0.92
1.67 2.35 2.54 2.25 2.32 2.92 3.71 4.26 4.43 3.79 3.12 1.79 1.53 1.32 1.18 1.07 0.87 0.79 0.71 0.82 0.95 1.27 1.79 2.40 2.18 1.75 1.89 1.57 1.69 1.33 1.35 1.76 1.91 1.70 1.43 0.91 0.78 0.83 0.86 0.89 0.91 1.06 1.16 1.21 1.22 1.36 1.52 1.60 1.64 1.73 1.72 1.51 1.40 1.21
2.25 3.12 2.38 2.27 2.79 3.65 4.02 3.92 3.35 3.43 2.24 1.50 1.34 0.96 1.08 1.20 0.90 0.93 0.94 1.00 1.14 1.66 1.90 2.06 2.20 1.57 1.47 1.18 1.03 1.23 1.89 1.92 1.45 1.18 0.82 0.67 0.82 0.87 0.80 0.74 0.79 0.82 1.02 1.12 1.15 1.25 1.39 1.52 1.45 1.29 1.38 1.52 1.30 1.28
2.49 1.91 1.87 2.28 2.97 3.83 3.45 2.45 2.35 1.87 1.42 1.21 1.24 1.25 0.85 1.01 1.14 1.01 0.89 1.01 1.20 1.39 1.49 1.68 1.36 0.93 0.97 1.05 1.34 1.67 1.68 1.34 0.94 0.87 0.84 0.88 0.90 0.97 0.81 0.65 0.78 0.82 0.88 1.14 1.08 1.18 1.19 1.03 0.88 1.07 1.09 1.15 1.04 1.17
1.92 1.49 1.45 1.63 1.95 2.86 2.99 1.98 1.28 1.48 1.33 1.11 1.03 0.91 0.81 1.08 1.31 1.23 1.13 1.05 0.98 0.99 1.50 1.28 1.21 0.91 0.95 1.23 1.43 1.21 1.05 0.92 0.97 1.09 1.16 1.23 1.12 0.95 0.91 0.87 0.85 0.99 0.94 1.13 1.02 1.01 1.09 1.01 0.85 0.82 0.88 0.85 0.80 0.95
2.03 1.96 1.51 1.39 2.08 3.09 2.28 1.40 0.81 1.01 1.32 1.11 0.93 0.77 0.78 1.11 1.11 0.96 0.75 0.73 0.83 1.13 1.36 1.23 1.13 1.23 1.39 1.37 1.47 1.40 1.14 0.96 0.79 0.83 1.10 1.30 1.41 1.08 1.02 1.02 1.05 1.02 0.91 0.95 1.04 1.05 1.01 0.97 0.93 0.70 0.62 0.74 0.81 0.85
2.13 2.31 1.81 1.71 2.43 2.19 1.61 1.16 1.13 0.82 1.07 1.13 0.82 0.62 0.87 0.63 0.61 0.60 0.50 0.37 0.68 1.03 1.20 1.22 1.32 1.29 1.34 1.45 1.31 1.06 0.98 0.79 0.82 0.77 0.81 0.97 1.16 0.84 0.92 0.97 0.81 0.71 0.62 0.73 0.78 1.01 0.87 0.74 0.77 0.67 0.58 0.58 0.68 0.77
1.58 1.49 1.98 1.76 2.06 1.80 1.73 0.79 0.68 0.86 1.06 1.13 0.75 0.69 0.78 0.68 0.53 0.47 0.37 0.60 1.03 1.25 1.20 1.19 1.16 1.11 0.97 1.09 1.16 1.04 1.18 0.82 0.78 0.75 0.81 0.74 0.79 0.78 0.87 0.94 0.70 0.62 0.59 0.60 0.59 0.76 0.70 0.55 0.58 0.60 0.60 0.55 0.48 0.46
1.09 1.23 1.72 1.63 1.72 1.21 0.93 0.73 0.86 0.93 1.11 1.18 0.71 0.75 0.75 0.62 0.50 0.38 0.74 0.78 1.16 1.41 1.17 0.93 1.01 1.05 1.03 1.20 0.92 0.85 1.02 0.81 0.92 1.11 1.05 0.96 0.90 0.86 0.76 0.79 0.68 0.61 0.62 0.62 0.52 0.53 0.54 0.46 0.48 0.53 0.52 0.47 0.41 0.36
1.27 1.70 1.70 1.59 1.13 0.81 0.56 0.71 0.84 0.85 0.85 0.91 0.86 0.91 0.78 0.56 0.35 0.60 0.86 1.02 1.21 0.85 0.69 0.83 0.82 0.95 1.04 0.91 0.94 1.00 1.21 0.95 0.93 1.06 1.13 0.91 0.74 0.81 0.65 0.65 0.48 0.48 0.52 0.51 0.44 0.49 0.52 0.47 0.40 0.40 0.41 0.40 0.36 0.43
2.82 2.02 1.25 1.02 0.73 0.73 0.55 0.47 0.51 0.65 0.88 0.89 0.97 1.06 1.00 0.67 0.94 0.93 0.96 1.19 0.85 0.73 0.74 0.78 0.78 0.78 0.81 0.94 1.00 0.99 1.02 1.03 1.04 1.03 1.20 1.00 0.87 0.79 0.68 0.62 0.54 0.52 0.46 0.49 0.59 0.60 0.55 0.54 0.51 0.40 0.27 0.29 0.43 0.40
1.66 0.92 0.92 0.69 0.66 0.69 0.70 0.65 0.71 0.61 0.62 0.76 0.78 0.62 0.43 0.56 0.75 1.12 1.14 1.20 0.89 0.89 0.91 0.94 0.91 0.75 0.77 0.83 0.80 0.70 0.76 0.82 0.85 0.77 1.05 0.94 0.97 1.02 0.90 0.75 0.68 0.67 0.45 0.48 0.59 0.55 0.50 0.44 0.40 0.40 0.44 0.38 0.33 0.37
0.97 0.51 0.34 0.25 0.30 0.36 0.41 0.47 0.52 0.57 0.72 0.80 0.76 0.53 0.66 0.79 0.79 0.88 0.80 0.78 0.78 0.89 0.80 0.77 0.72 0.76 0.82 0.80 0.75 0.69 0.57 0.52 0.57 0.74 0.87 0.79 0.78 0.89 1.01 1.11 1.02 0.89 0.57 0.49 0.49 0.53 0.56 0.51 0.49 0.46 0.49 0.48 0.45 0.48
0.57 0.25 0.27 0.27 0.29 0.31 0.38 0.41 0.57 0.61 0.58 0.50 0.64 0.63 0.74 0.68 0.84 0.90 0.83 0.85 0.70 0.59 0.47 0.42 0.39 0.40 0.46 0.52 0.56 0.51 0.47 0.50 0.56 0.53 0.51 0.57 0.65 0.83 0.83 0.75 0.67 0.58 0.58 0.61 0.58 0.54 0.53 0.55 0.52 0.53 0.53 0.56 0.51 0.42
0.43 0.33 0.32 0.41 0.40 0.46 0.65 0.62 0.66 0.50 0.41 0.44 0.55 0.57 0.63 0.71 0.98 0.86 0.73 0.59 0.56 0.47 0.41 0.37 0.38 0.26 0.23 0.19 0.20 0.28 0.40 0.44 0.50 0.50 0.43 0.54 0.65 0.72 0.57 0.51 0.47 0.48 0.53 0.58 0.61 0.63 0.59 0.53 0.47 0.47 0.54 0.62 0.56 0.54
0.27 0.26 0.41 0.33 0.39 0.53 0.66 0.42 0.49 0.35 0.24 0.22 0.25 0.34 0.46 0.83 1.05 0.81 0.58 0.47 0.41 0.43 0.41 0.35 0.34 0.28 0.26 0.24 0.21 0.22 0.36 0.39 0.41 0.53 0.54 0.46 0.53 0.52 0.45 0.45 0.46 0.46 0.51 0.59 0.69 0.75 0.76 0.73 0.73 0.78 0.68 0.60 0.65 0.68
0.15 0.22 0.30 0.33 0.56 0.76 0.58 0.47 0.45 0.35 0.25 0.19 0.17 0.27 0.51 0.72 0.73 0.52 0.38 0.44 0.37 0.33 0.28 0.25 0.27 0.27 0.25 0.28 0.37 0.38 0.43 0.37 0.28 0.31 0.39 0.42 0.41 0.42 0.40 0.38 0.41 0.47 0.51 0.55 0.59 0.70 0.82 0.83 0.86 0.84 0.76 0.64 0.61 0.56
0.22 0.29 0.32 0.35 0.62 0.62 0.58 0.62 0.49 0.46 0.40 0.32 0.45 0.42 0.50 0.45 0.56 0.71 0.48 0.38 0.35 0.27 0.29 0.30 0.31 0.35 0.37 0.44 0.49 0.49 0.44 0.38 0.30 0.30 0.30 0.32 0.39 0.40 0.36 0.31 0.33 0.38 0.41 0.42 0.46 0.56 0.62 0.74 0.92 0.81 0.72 0.72 0.68 0.63
0.38 0.29 0.32 0.37 0.43 0.42 0.38 0.47 0.40 0.49 0.50 0.57 0.64 0.46 0.40 0.41 0.60 0.76 0.50 0.41 0.55 0.46 0.42 0.47 0.50 0.48 0.50 0.48 0.48 0.42 0.35 0.35 0.32 0.33 0.32 0.32 0.33 0.33 0.32 0.31 0.30 0.31 0.31 0.32 0.35 0.40 0.43 0.50 0.63 0.71 0.77 0.79 0.83 0.81

GFSWCAN_prec_precacc_333.txt.gz
Total_Precipitation_Accumulation
3.01 3.28 3.30 2.90 3.02 2.81 2.63 2.48 2.88 3.26 3.03 2.87 2.58 2.85 2.99 3.17 3.88 5.16 4.82 3.28 4.38 4.83 2.07 1.14 1.15 0.95 1.25 1.62 2.50 2.15 2.55 2.79 3.49 3.93 3.15 2.40 1.47 1.04 0.86 0.76 0.89 1.34 2.16 2.40 2.53 2.73 1.50 0.25 0.23 0.62 0.67 0.38 0.89 1.46
2.90 3.15 2.90 2.55 2.67 2.67 2.54 2.35 2.33 2.46 2.76 2.83 2.54 2.61 2.81 2.84 3.34 4.53 5.91 4.18 3.89 6.16 3.45 1.15 0.87 0.73 0.66 0.93 1.46 2.48 2.51 1.90 2.45 3.02 2.68 2.18 1.91 1.53 1.01 1.06 1.07 1.37 1.52 1.63 1.75 1.67 0.78 0.31 0.34 0.36 0.34 0.58 1.07 1.23
2.65 2.87 2.88 2.52 2.38 2.28 2.30 2.40 2.37 2.17 2.08 2.51 2.51 2.42 2.68 2.73 3.04 3.84 5.13 4.23 5.70 6.75 4.41 1.60 1.22 0.77 0.47 0.60 0.96 2.75 1.57 1.45 1.89 1.87 2.57 2.24 1.87 1.20 1.22 1.05 1.08 0.89 0.83 1.48 1.13 0.56 0.34 0.33 0.27 0.23 0.24 0.33 0.96 0.93
2.52 2.73 2.75 2.70 2.30 2.12 1.93 2.17 2.53 2.33 2.26 2.22 2.56 2.41 2.52 2.90 3.24 3.65 4.58 4.34 5.84 6.49 4.95 2.10 0.92 0.93 0.86 0.59 0.80 1.03 0.85 1.07 1.50 1.96 3.14 2.81 1.78 1.06 1.07 0.77 0.82 1.20 1.32 1.18 0.99 0.58 0.47 0.31 0.27 0.33 0.38 0.53 0.58 0.86
2.51 2.78 2.84 2.65 2.34 2.08 1.92 2.13 2.61 2.57 2.71 2.66 2.68 2.84 2.91 3.33 3.59 3.88 4.21 3.78 4.22 4.38 3.87 2.47 1.12 0.71 0.92 0.85 0.83 0.87 1.11 1.42 1.81 2.74 2.98 1.88 0.93 1.08 0.81 0.84 1.11 0.94 1.39 1.41 1.40 0.73 0.88 0.57 0.62 0.74 0.69 0.52 0.61 0.47
2.66 2.64 2.51 2.48 2.21 2.19 2.13 2.43 2.57 2.67 2.77 3.27 3.04 3.12 3.41 3.82 4.39 6.73 8.65 5.31 3.42 3.48 5.31 3.38 2.19 1.00 1.18 1.28 1.42 1.43 1.25 1.75 2.30 2.58 1.84 1.13 0.78 1.54 1.65 0.91 0.55 0.39 0.86 1.32 1.57 1.04 1.04 0.93 0.88 0.54 0.53 0.56 0.61 0.58
2.54 2.53 2.43 2.29 2.05 2.22 2.48 2.54 2.64 2.56 2.97 3.42 3.30 2.79 2.92 4.09 5.44 6.76 4.58 3.19 2.34 4.02 6.33 3.78 2.50 1.59 1.46 1.64 1.71 2.39 2.28 2.60 2.32 2.53 1.72 0.74 0.69 1.95 1.84 0.62 0.23 0.31 0.42 0.78 1.46 1.63 1.76 1.30 1.34 0.96 0.47 0.36 0.44 0.28
2.55 2.43 2.27 2.12 1.95 1.96 2.54 2.78 2.81 3.09 3.52 3.87 3.48 3.18 3.81 5.40 6.08 4.30 1.74 2.11 2.74 4.65 4.90 3.93 2.77 2.95 2.11 2.44 2.13 1.87 2.71 3.24 3.35 2.53 1.37 0.91 0.91 1.55 1.41 0.16 0.09 0.21 0.25 0.36 0.50 0.41 0.79 0.84 0.64 0.52 0.26 0.11 0.09 0.14
2.39 2.21 2.24 1.96 1.75 1.79 2.13 2.53 3.00 3.69 4.07 4.88 5.25 5.94 8.35 9.45 7.37 3.41 2.16 3.39 4.15 5.86 5.03 2.62 1.78 2.97 2.48 2.46 2.54 2.16 2.45 3.55 2.86 2.55 1.33 1.27 1.34 1.29 0.45 0.20 0.19 0.16 0.22 0.26 0.20 0.29 0.29 0.32 0.27 0.18 0.18 0.19 0.27 0.24
2.41 2.21 2.18 1.88 1.74 1.79 2.14 2.64 3.30 4.58 5.98 7.27 9.15 10.75 10.85 6.22 2.98 3.64 6.88 7.84 7.73 5.91 3.75 1.80 0.96 2.25 2.95 2.46 3.18 3.47 3.35 2.48 2.36 1.20 1.12 1.45 0.76 0.50 0.40 0.37 0.28 0.17 0.10 0.16 0.38 0.51 0.45 0.33 0.28 0.22 0.23 0.24 0.24 0.21
2.32 2.29 1.92 1.82 1.93 2.22 2.73 3.25 4.19 6.43 8.63 9.07 8.89 6.95 5.22 3.62 4.16 5.65 7.04 5.77 4.56 3.24 1.51 0.85 0.73 1.27 1.80 2.35 2.53 2.87 3.21 2.36 2.01 0.99 1.10 1.26 0.89 0.73 0.69 0.66 0.48 0.40 0.24 0.17 0.17 0.19 0.22 0.28 0.36 0.35 0.23 0.15 0.13 0.20
2.26 1.89 1.64 1.76 1.85 2.12 2.49 3.70 4.94 6.17 6.26 4.59 4.22 4.76 5.51 5.52 5.85 5.37 4.21 2.70 1.51 0.89 0.64 0.55 0.99 1.50 1.82 2.44 3.25 3.28 2.82 2.28 1.43 1.25 1.71 1.15 1.03 0.66 0.50 0.61 0.36 0.21 0.16 0.16 0.23 0.31 0.34 0.32 0.29 0.37 0.40 0.45 0.53 0.61
2.02 1.56 1.38 1.53 1.69 2.11 3.03 3.79 3.41 3.15 2.96 3.38 3.94 5.14 5.15 4.93 4.55 3.08 1.93 1.29 0.74 0.51 0.53 0.58 1.45 1.78 2.02 2.52 3.77 3.74 3.25 2.21 1.55 2.61 1.69 1.03 0.78 0.93 0.75 0.51 0.34 0.23 0.31 0.45 0.38 0.28 0.28 0.27 0.31 0.51 0.73 0.84 0.82 0.78
1.75 1.59 1.56 1.70 1.89 2.43 3.50 3.65 3.99 3.73 3.84 3.96 3.96 3.89 2.96 2.38 1.62 0.92 0.66 0.60 0.49 0.47 0.66 0.97 1.47 1.72 2.02 2.51 2.60 2.71 2.22 2.23 2.37 1.67 1.40 1.49 1.25 0.94 0.64 0.61 0.67 0.73 0.66 0.72 0.86 0.56 0.48 0.46 0.47 0.61 0.80 0.87 0.83 0.91
1.64 1.60 1.82 2.27 2.39 2.80 3.42 3.90 4.12 4.04 3.84 3.22 2.27 1.77 1.13 1.08 0.79 0.60 0.52 0.50 0.56 0.85 1.34 2.04 2.01 1.86 2.29 3.06 2.13 1.97 2.07 1.84 1.37 1.64 1.88 1.49 1.07 0.87 0.89 0.87 0.88 1.19 1.11 1.09 1.27 1.32 1.19 1.02 0.87 1.12 1.16 1.03 0.89 0.92
1.71 2.44 2.62 2.31 2.38 2.96 3.75 4.34 4.74 4.07 3.27 1.82 1.54 1.33 1.19 1.08 0.89 0.81 0.73 0.86 1.00 1.32 1.88 2.56 2.46 2.03 2.18 1.72 1.94 1.54 1.42 1.81 1.94 1.70 1.43 0.91 0.78 0.83 0.86 0.89 0.91 1.06 1.16 1.21 1.22 1.36 1.52 1.60 1.64 1.73 1.72 1.51 1.40 1.21
2.37 3.27 2.44 2.33 2.84 3.71 4.10 4.30 3.90 3.70 2.32 1.52 1.34 0.97 1.09 1.21 0.92 0.94 0.96 1.03 1.17 1.78 2.02 2.35 2.44 1.76 1.69 1.33 1.09 1.30 1.96 1.96 1.46 1.18 0.82 0.67 0.82 0.87 0.80 0.74 0.79 0.82 1.02 1.12 1.15 1.25 1.39 1.52 1.45 1.29 1.38 1.52 1.30 1.28
2.59 1.94 1.88 2.34 3.05 4.00 3.74 2.80 2.57 1.95 1.46 1.22 1.24 1.25 0.86 1.02 1.15 1.03 0.90 1.02 1.25 1.59 1.73 1.93 1.56 1.07 1.03 1.13 1.39 1.72 1.72 1.40 0.96 0.87 0.84 0.88 0.90 0.97 0.81 0.65 0.78 0.82 0.88 1.14 1.08 1.18 1.19 1.03 0.88 1.07 1.09 1.15 1.04 1.17
1.98 1.52 1.47 1.70 2.04 3.13 3.29 2.24 1.37 1.50 1.33 1.12 1.03 0.91 0.81 1.08 1.31 1.23 1.14 1.06 1.00 1.09 1.72 1.46 1.32 0.94 0.96 1.25 1.49 1.30 1.15 0.97 0.98 1.09 1.16 1.23 1.12 0.95 0.91 0.87 0.85 0.99 0.94 1.13 1.02 1.01 1.09 1.01 0.85 0.82 0.88 0.85 0.80 0.95
2.07 1.98 1.55 1.46 2.10 3.14 2.35 1.49 0.84 1.05 1.33 1.12 0.93 0.77 0.78 1.11 1.11 0.96 0.75 0.74 0.85 1.18 1.56 1.46 1.18 1.27 1.44 1.39 1.48 1.41 1.19 0.99 0.79 0.83 1.10 1.30 1.41 1.08 1.02 1.02 1.05 1.02 0.91 0.95 1.04 1.05 1.01 0.97 0.93 0.70 0.62 0.74 0.81 0.85
2.22 2.41 1.89 1.76 2.50 2.22 1.62 1.16 1.15 0.83 1.09 1.16 0.83 0.63 0.88 0.64 0.61 0.60 0.50 0.37 0.76 1.12 1.27 1.25 1.34 1.30 1.35 1.46 1.31 1.06 0.98 0.79 0.83 0.77 0.81 0.97 1.16 0.84 0.92 0.97 0.81 0.71 0.62 0.73 0.78 1.01 0.87 0.74 0.77 0.67 0.58 0.58 0.68 0.77
1.76 1.63 2.25 1.91 2.11 1.81 1.74 0.80 0.71 0.88 1.07 1.13 0.76 0.70 0.81 0.74 0.57 0.49 0.39 0.62 1.08 1.30 1.21 1.21 1.17 1.12 0.97 1.10 1.17 1.05 1.18 0.82 0.78 0.76 0.81 0.74 0.79 0.78 0.87 0.94 0.70 0.62 0.59 0.60 0.59 0.76 0.70 0.55 0.58 0.60 0.60 0.55 0.48 0.46
1.20 1.34 1.93 1.75 1.76 1.22 0.96 0.76 0.94 0.96 1.12 1.19 0.71 0.75 0.76 0.63 0.52 0.41 0.80 0.80 1.17 1.41 1.18 0.94 1.02 1.05 1.03 1.20 0.92 0.85 1.02 0.81 0.92 1.11 1.05 0.96 0.90 0.86 0.76 0.79 0.68 0.61 0.62 0.62 0.52 0.53 0.54 0.46 0.48 0.53 0.52 0.47 0.41 0.37
1.29 1.83 1.77 1.63 1.17 0.84 0.57 0.76 0.93 1.00 0.91 0.94 0.89 0.94 0.82 0.58 0.39 0.65 0.89 1.02 1.21 0.85 0.69 0.83 0.82 0.95 1.05 0.94 0.95 1.00 1.21 0.95 0.93 1.06 1.13 0.91 0.74 0.81 0.65 0.65 0.48 0.48 0.52 0.51 0.44 0.49 0.52 0.47 0.40 0.40 0.41 0.40 0.36 0.43
2.87 2.08 1.28 1.05 0.75 0.77 0.56 0.48 0.58 0.80 1.01 0.92 1.01 1.11 1.12 0.76 0.99 0.96 0.97 1.20 0.85 0.73 0.74 0.78 0.78 0.78 0.82 0.99 1.08 1.01 1.02 1.03 1.04 1.03 1.20 1.00 0.87 0.79 0.68 0.62 0.54 0.52 0.46 0.49 0.59 0.60 0.56 0.54 0.51 0.40 0.27 0.29 0.43 0.40
1.70 0.93 0.95 0.71 0.67 0.73 0.73 0.66 0.71 0.67 0.80 0.89 0.84 0.67 0.50 0.70 0.84 1.14 1.14 1.20 0.89 0.89 0.91 0.94 0.91 0.75 0.77 0.89 0.92 0.77 0.76 0.82 0.85 0.77 1.05 0.94 0.97 1.02 0.90 0.75 0.68 0.67 0.45 0.48 0.59 0.55 0.50 0.44 0.40 0.40 0.44 0.38 0.33 0.37
1.01 0.52 0.35 0.26 0.30 0.38 0.46 0.48 0.52 0.58 0.74 0.84 0.82 0.57 0.76 0.88 0.86 0.90 0.80 0.78 0.78 0.89 0.80 0.77 0.72 0.76 0.83 0.83 0.82 0.73 0.58 0.52 0.57 0.74 0.87 0.79 0.78 0.89 1.01 1.11 1.02 0.89 0.57 0.49 0.49 0.53 0.56 0.51 0.49 0.46 0.49 0.48 0.45 0.48
0.61 0.27 0.27 0.27 0.29 0.32 0.42 0.45 0.60 0.61 0.59 0.51 0.68 0.70 0.77 0.70 0.89 0.90 0.83 0.85 0.70 0.59 0.47 0.42 0.39 0.40 0.46 0.55 0.60 0.56 0.49 0.52 0.56 0.53 0.51 0.58 0.65 0.83 0.83 0.75 0.67 0.58 0.58 0.61 0.58 0.54 0.53 0.55 0.52 0.53 0.53 0.56 0.51 0.42
0.44 0.33 0.32 0.41 0.40 0.46 0.65 0.65 0.69 0.51 0.41 0.45 0.64 0.69 0.68 0.72 0.98 0.86 0.73 0.59 0.56 0.47 0.41 0.37 0.38 0.26 0.24 0.24 0.29 0.36 0.45 0.47 0.50 0.50 0.45 0.56 0.66 0.72 0.57 0.51 0.47 0.48 0.53 0.58 0.61 0.63 0.59 0.53 0.47 0.47 0.54 0.62 0.56 0.54
0.27 0.27 0.41 0.33 0.39 0.53 0.66 0.42 0.49 0.36 0.24 0.23 0.35 0.54 0.55 0.85 1.06 0.82 0.59 0.48 0.41 0.43 0.41 0.35 0.34 0.29 0.28 0.28 0.31 0.31 0.45 0.47 0.45 0.55 0.54 0.47 0.53 0.52 0.45 0.45 0.46 0.46 0.51 0.59 0.69 0.75 0.76 0.73 0.73 0.78 0.68 0.60 0.65 0.68
0.16 0.22 0.30 0.33 0.56 0.77 0.58 0.48 0.46 0.35 0.25 0.21 0.26 0.50 0.64 0.75 0.75 0.53 0.39 0.44 0.37 0.33 0.28 0.26 0.30 0.31 0.29 0.32 0.43 0.45 0.52 0.47 0.33 0.35 0.42 0.43 0.41 0.42 0.40 0.38 0.41 0.47 0.51 0.55 0.59 0.70 0.82 0.83 0.86 0.84 0.76 0.64 0.61 0.56
0.23 0.30 0.32 0.35 0.63 0.63 0.59 0.63 0.49 0.47 0.42 0.39 0.54 0.52 0.60 0.49 0.57 0.72 0.48 0.39 0.37 0.28 0.29 0.30 0.33 0.39 0.43 0.52 0.61 0.62 0.55 0.46 0.33 0.30 0.30 0.33 0.39 0.40 0.36 0.31 0.33 0.38 0.41 0.42 0.46 0.56 0.62 0.74 0.92 0.81 0.72 0.72 0.68 0.63
0.38 0.29 0.32 0.37 0.44 0.43 0.38 0.47 0.40 0.50 0.51 0.58 0.65 0.47 0.41 0.41 0.60 0.76 0.50 0.42 0.55 0.47 0.42 0.48 0.51 0.52 0.56 0.55 0.56 0.50 0.43 0.41 0.34 0.34 0.33 0.32 0.33 0.33 0.32 0.31 0.30 0.31 0.31 0.32 0.35 0.40 0.43 0.50 0.63 0.71 0.77 0.79 0.83 0.81

GFSWCAN_prec_precacc_336.txt.gz
Total_Precipitation_Accumulation
3.01 3.28 3.30 2.90 3.02 2.81 2.63 2.48 2.88 3.26 3.04 2.87 2.59 2.86 3.00 3.18 3.88 5.16 4.82 3.29 4.45 4.87 2.07 1.14 1.16 0.95 1.26 1.62 2.51 2.18 2.60 2.84 3.50 3.93 3.15 2.40 1.47 1.04 0.86 0.76 0.89 1.34 2.16 2.40 2.53 2.73 1.50 0.25 0.23 0.62 0.67 0.38 0.89 1.46
2.90 3.15 2.90 2.55 2.67 2.67 2.54 2.35 2.33 2.46 2.76 2.83 2.54 2.62 2.82 2.85 3.35 4.53 5.91 4.18 3.94 6.23 3.47 1.15 0.87 0.73 0.66 0.93 1.46 2.50 2.53 1.92 2.49 3.04 2.69 2.19 1.91 1.53 1.01 1.06 1.07 1.37 1.52 1.63 1.75 1.67 0.78 0.31 0.34 0.36 0.34 0.58 1.07 1.23
2.65 2.87 2.88 2.52 2.38 2.28 2.30 2.40 2.37 2.17 2.08 2.51 2.52 2.43 2.69 2.74 3.05 3.84 5.13 4.23 5.75 6.81 4.42 1.60 1.22 0.77 0.47 0.60 0.96 2.75 1.58 1.51 1.96 1.90 2.61 2.27 1.89 1.21 1.23 1.05 1.08 0.89 0.83 1.48 1.13 0.56 0.34 0.33 0.27 0.23 0.24 0.33 0.96 0.93
2.54 2.73 2.75 2.70 2.30 2.12 1.93 2.17 2.53 2.33 2.26 2.22 2.56 2.42 2.54 2.92 3.26 3.65 4.58 4.34 5.88 6.56 4.99 2.10 0.92 0.93 0.86 0.59 0.80 1.03 0.85 1.09 1.56 2.04 3.17 2.84 1.79 1.07 1.07 0.77 0.82 1.20 1.32 1.18 0.99 0.58 0.47 0.31 0.27 0.33 0.38 0.53 0.58 0.86
2.54 2.78 2.84 2.65 2.34 2.08 1.92 2.13 2.61 2.57 2.71 2.66 2.68 2.84 2.92 3.35 3.62 3.89 4.21 3.79 4.24 4.45 3.93 2.49 1.13 0.71 0.92 0.85 0.83 0.87 1.11 1.42 1.84 2.80 3.08 1.89 0.93 1.09 0.81 0.84 1.11 0.94 1.39 1.41 1.40 0.73 0.88 0.57 0.62 0.74 0.69 0.52 0.61 0.47
2.78 2.65 2.51 2.48 2.21 2.19 2.13 2.43 2.57 2.67 2.77 3.27 3.04 3.12 3.42 3.84 4.42 6.77 8.68 5.31 3.43 3.55 5.40 3.41 2.19 1.00 1.18 1.28 1.42 1.43 1.25 1.77 2.34 2.65 1.87 1.15 0.78 1.56 1.65 0.91 0.55 0.39 0.86 1.32 1.57 1.04 1.04 0.93 0.88 0.54 0.53 0.56 0.61 0.58
2.70 2.60 2.43 2.29 2.05 2.22 2.48 2.54 2.64 2.56 2.97 3.42 3.30 2.80 2.94 4.12 5.46 6.79 4.61 3.21 2.35 4.07 6.43 3.82 2.50 1.59 1.46 1.64 1.71 2.40 2.31 2.65 2.37 2.63 1.78 0.76 0.71 1.97 1.84 0.62 0.23 0.31 0.42 0.78 1.46 1.63 1.76 1.30 1.34 0.96 0.47 0.36 0.44 0.28
2.65 2.51 2.31 2.13 1.95 1.96 2.54 2.78 2.81 3.09 3.52 3.87 3.48 3.19 3.84 5.44 6.12 4.32 1.74 2.11 2.78 4.74 4.97 3.98 2.77 2.95 2.11 2.44 2.13 1.88 2.75 3.33 3.50 2.66 1.43 0.93 0.94 1.60 1.43 0.16 0.09 0.21 0.25 0.36 0.50 0.41 0.79 0.84 0.64 0.52 0.26 0.11 0.09 0.14
2.45 2.26 2.27 1.97 1.75 1.79 2.13 2.53 3.00 3.69 4.07 4.89 5.28 6.00 8.42 9.51 7.41 3.41 2.16 3.40 4.19 5.99 5.13 2.65 1.79 2.97 2.52 2.50 2.59 2.22 2.52 3.67 3.02 2.71 1.42 1.32 1.42 1.38 0.46 0.20 0.19 0.16 0.22 0.26 0.20 0.29 0.29 0.32 0.27 0.18 0.18 0.19 0.27 0.24
2.47 2.23 2.18 1.88 1.74 1.79 2.14 2.64 3.31 4.59 6.00 7.32 9.21 10.80 10.91 6.23 2.99 3.66 6.95 7.97 7.86 6.09 3.85 1.81 0.96 2.26 3.03 2.59 3.28 3.58 3.47 2.56 2.45 1.25 1.16 1.52 0.81 0.51 0.40 0.37 0.28 0.17 0.10 0.16 0.38 0.51 0.45 0.33 0.28 0.22 0.23 0.24 0.24 0.21
2.39 2.30 1.92 1.82 1.93 2.22 2.73 3.25 4.20 6.46 8.70 9.12 8.91 6.99 5.29 3.65 4.21 5.79 7.22 6.00 4.67 3.31 1.53 0.85 0.73 1.27 1.81 2.43 2.68 2.95 3.26 2.43 2.04 1.01 1.14 1.27 0.89 0.73 0.69 0.66 0.48 0.40 0.24 0.17 0.17 0.19 0.22 0.28 0.36 0.35 0.23 0.15 0.13 0.20
2.32 1.90 1.64 1.76 1.85 2.12 2.49 3.70 4.96 6.20 6.28 4.60 4.27 4.83 5.77 5.64 6.00 5.56 4.31 2.80 1.55 0.89 0.64 0.55 0.99 1.50 1.82 2.48 3.44 3.47 2.84 2.30 1.44 1.30 1.76 1.16 1.03 0.66 0.50 0.61 0.36 0.21 0.16 0.16 0.23 0.31 0.34 0.32 0.29 0.37 0.40 0.45 0.53 0.61
2.04 1.57 1.39 1.53 1.69 2.11 3.04 3.80 3.42 3.17 2.97 3.42 4.10 5.26 5.46 5.05 4.68 3.14 1.97 1.31 0.75 0.51 0.53 0.59 1.48 1.79 2.02 2.55 3.86 3.89 3.34 2.23 1.57 2.68 1.72 1.03 0.78 0.93 0.75 0.51 0.34 0.23 0.31 0.45 0.38 0.28 0.28 0.27 0.31 0.51 0.73 0.84 0.82 0.78
1.77 1.59 1.57 1.70 1.89 2.44 3.51 3.66 4.00 3.75 3.92 4.03 4.10 4.01 3.03 2.45 1.64 0.92 0.66 0.60 0.49 0.47 0.66 0.99 1.55 1.88 2.04 2.53 2.63 2.74 2.23 2.24 2.39 1.70 1.40 1.49 1.25 0.94 0.64 0.61 0.67 0.73 0.66 0.72 0.86 0.56 0.48 0.46 0.47 0.61 0.80 0.87 0.83 0.91
1.66 1.61 1.82 2.28 2.39 2.80 3.43 3.91 4.13 4.08 3.94 3.35 2.35 1.86 1.15 1.10 0.79 0.60 0.52 0.51 0.56 0.85 1.35 2.07 2.05 2.05 2.48 3.11 2.15 1.98 2.07 1.85 1.40 1.68 1.92 1.51 1.08 0.87 0.89 0.87 0.88 1.19 1.11 1.09 1.27 1.32 1.19 1.02 0.87 1.12 1.16 1.03 0.89 0.92
1.73 2.48 2.65 2.32 2.39 2.97 3.77 4.38 4.80 4.11 3.37 1.93 1.59 1.37 1.20 1.10 0.91 0.84 0.76 0.90 1.03 1.36 1.92 2.59 2.50 2.08 2.37 1.80 1.99 1.55 1.43 1.84 2.01 1.86 1.54 0.95 0.78 0.83 0.86 0.89 0.91 1.06 1.16 1.21 1.22 1.36 1.52 1.60 1.64 1.73 1.72 1.51 1.40 1.21
2.40 3.30 2.44 2.34 2.85 3.74 4.16 4.36 3.99 3.80 2.43 1.59 1.37 0.97 1.11 1.22 0.93 0.95 0.98 1.07 1.18 1.81 2.04 2.39 2.55 1.81 1.75 1.38 1.11 1.33 1.97 1.97 1.48 1.20 0.85 0.70 0.82 0.87 0.80 0.74 0.79 0.82 1.02 1.12 1.15 1.25 1.39 1.52 1.45 1.29 1.38 1.52 1.30 1.28
2.62 1.97 1.89 2.35 3.09 4.09 3.82 2.86 2.63 2.03 1.53 1.25 1.26 1.26 0.87 1.04 1.17 1.05 0.91 1.04 1.28 1.61 1.73 1.97 1.60 1.14 1.18 1.23 1.44 1.76 1.74 1.41 0.98 0.89 0.85 0.89 0.90 0.97 0.81 0.65 0.78 0.82 0.88 1.14 1.08 1.18 1.19 1.03 0.88 1.07 1.09 1.15 1.04 1.17
2.03 1.56 1.48 1.73 2.11 3.32 3.42 2.34 1.44 1.56 1.35 1.14 1.05 0.93 0.82 1.09 1.32 1.25 1.14 1.06 1.01 1.11 1.72 1.46 1.33 0.94 0.99 1.37 1.66 1.39 1.22 1.04 1.04 1.12 1.17 1.23 1.13 0.95 0.91 0.87 0.86 1.00 0.96 1.14 1.03 1.01 1.09 1.01 0.85 0.82 0.88 0.85 0.80 0.95
2.13 2.00 1.56 1.49 2.15 3.23 2.39 1.56 0.88 1.11 1.38 1.15 0.94 0.78 0.79 1.12 1.11 0.96 0.75 0.74 0.85 1.19 1.56 1.46 1.18 1.28 1.51 1.44 1.54 1.51 1.29 1.18 0.99 0.89 1.10 1.31 1.42 1.08 1.02 1.02 1.07 1.03 0.92 0.97 1.05 1.05 1.01 0.97 0.93 0.70 0.62 0.74 0.81 0.85
2.31 2.46 1.91 1.78 2.56 2.31 1.68 1.19 1.18 0.86 1.13 1.19 0.85 0.65 0.90 0.65 0.62 0.60 0.50 0.37 0.76 1.12 1.27 1.25 1.34 1.30 1.36 1.47 1.33 1.11 1.04 0.83 0.86 0.79 0.81 0.98 1.19 0.84 0.92 0.97 0.82 0.71 0.62 0.73 0.78 1.01 0.87 0.74 0.77 0.67 0.58 0.58 0.68 0.77
1.85 1.68 2.35 2.03 2.21 1.86 1.78 0.83 0.74 0.90 1.09 1.15 0.77 0.74 0.84 0.77 0.59 0.50 0.40 0.63 1.09 1.30 1.21 1.21 1.17 1.12 0.97 1.10 1.17 1.05 1.19 0.83 0.78 0.76 0.81 0.75 0.84 0.81 0.87 0.94 0.70 0.62 0.59 0.60 0.59 0.76 0.70 0.55 0.58 0.60 0.60 0.55 0.48 0.46
1.25 1.39 2.03 1.88 1.84 1.25 0.98 0.77 0.97 0.99 1.15 1.20 0.71 0.76 0.77 0.65 0.53 0.43 0.88 0.85 1.19 1.41 1.18 0.94 1.02 1.05 1.03 1.20 0.92 0.86 1.06 0.82 0.92 1.11 1.05 0.96 0.91 0.90 0.76 0.79 0.68 0.61 0.62 0.62 0.52 0.53 0.54 0.46 0.48 0.53 0.52 0.47 0.41 0.37
1.30 1.87 1.82 1.66 1.20 0.86 0.59 0.78 0.94 1.00 0.92 0.95 0.90 0.95 0.82 0.59 0.39 0.66 0.89 1.02 1.22 0.86 0.70 0.83 0.82 0.95 1.05 0.94 0.95 1.03 1.28 0.97 0.94 1.06 1.13 0.91 0.74 0.82 0.65 0.65 0.48 0.48 0.52 0.51 0.44 0.49 0.52 0.47 0.40 0.40 0.41 0.40 0.36 0.43
2.92 2.12 1.31 1.08 0.77 0.79 0.57 0.49 0.58 0.80 1.01 0.92 1.02 1.13 1.15 0.77 1.01 0.97 0.97 1.20 0.85 0.73 0.74 0.78 0.78 0.78 0.82 0.99 1.08 1.01 1.02 1.03 1.04 1.03 1.20 1.00 0.87 0.81 0.70 0.62 0.54 0.52 0.46 0.49 0.59 0.60 0.56 0.54 0.51 0.40 0.27 0.29 0.43 0.40
1.77 0.97 0.98 0.72 0.68 0.74 0.73 0.66 0.71 0.67 0.83 0.99 0.89 0.69 0.54 0.78 0.89 1.15 1.14 1.21 0.89 0.89 0.91 0.94 0.91 0.75 0.77 0.89 0.92 0.77 0.76 0.82 0.85 0.77 1.05 0.94 0.97 1.03 0.91 0.75 0.68 0.67 0.45 0.48 0.59 0.55 0.50 0.44 0.40 0.40 0.44 0.38 0.33 0.37
1.06 0.54 0.35 0.26 0.30 0.38 0.46 0.49 0.53 0.59 0.75 0.86 0.85 0.66 0.86 0.97 0.87 0.91 0.83 0.80 0.78 0.89 0.80 0.77 0.72 0.76 0.83 0.83 0.82 0.73 0.58 0.52 0.57 0.74 0.87 0.79 0.78 0.89 1.01 1.11 1.02 0.89 0.57 0.49 0.49 0.53 0.56 0.51 0.49 0.46 0.49 0.48 0.45 0.48
0.63 0.27 0.27 0.27 0.29 0.32 0.42 0.46 0.62 0.63 0.60 0.52 0.71 0.75 0.83 0.72 0.92 0.94 0.86 0.87 0.70 0.59 0.47 0.42 0.39 0.40 0.46 0.55 0.60 0.56 0.49 0.52 0.56 0.53 0.51 0.58 0.65 0.83 0.83 0.75 0.67 0.58 0.59 0.61 0.58 0.54 0.53 0.55 0.52 0.53 0.53 0.56 0.51 0.42
0.46 0.33 0.32 0.42 0.40 0.46 0.65 0.65 0.69 0.55 0.43 0.46 0.65 0.70 0.68 0.72 0.99 0.86 0.73 0.59 0.56 0.47 0.41 0.37 0.38 0.26 0.24 0.24 0.29 0.36 0.45 0.47 0.50 0.51 0.45 0.57 0.67 0.73 0.57 0.51 0.48 0.50 0.53 0.58 0.61 0.63 0.59 0.53 0.47 0.47 0.54 0.62 0.56 0.54
0.28 0.27 0.41 0.33 0.39 0.53 0.67 0.42 0.49 0.36 0.24 0.23 0.35 0.55 0.55 0.85 1.06 0.82 0.59 0.48 0.41 0.43 0.41 0.35 0.34 0.29 0.28 0.28 0.31 0.31 0.45 0.47 0.45 0.55 0.55 0.47 0.54 0.52 0.45 0.46 0.48 0.47 0.51 0.59 0.69 0.75 0.76 0.73 0.73 0.78 0.68 0.60 0.65 0.68
0.16 0.22 0.30 0.33 0.56 0.77 0.58 0.48 0.47 0.36 0.25 0.21 0.26 0.51 0.65 0.76 0.75 0.53 0.39 0.44 0.37 0.33 0.28 0.26 0.30 0.31 0.29 0.32 0.43 0.45 0.52 0.47 0.35 0.35 0.43 0.44 0.42 0.43 0.41 0.39 0.41 0.47 0.51 0.55 0.59 0.70 0.82 0.83 0.86 0.84 0.76 0.64 0.61 0.56
0.23 0.30 0.32 0.35 0.64 0.64 0.60 0.63 0.50 0.47 0.42 0.40 0.57 0.57 0.66 0.52 0.57 0.72 0.48 0.39 0.37 0.28 0.29 0.31 0.33 0.39 0.43 0.52 0.61 0.62 0.56 0.48 0.35 0.31 0.31 0.36 0.41 0.41 0.36 0.31 0.33 0.38 0.41 0.42 0.46 0.56 0.62 0.74 0.92 0.81 0.72 0.72 0.68 0.63
0.39 0.30 0.32 0.37 0.44 0.43 0.39 0.47 0.40 0.51 0.53 0.62 0.71 0.55 0.49 0.46 0.60 0.77 0.50 0.42 0.55 0.47 0.42 0.48 0.51 0.53 0.56 0.55 0.56 0.52 0.46 0.43 0.40 0.39 0.35 0.33 0.34 0.33 0.32 0.31 0.30 0.31 0.31 0.32 0.35 0.40 0.43 0.50 0.63 0.71 0.77 0.79 0.83 0.81

GFSWCAN_prec_precacc_339.txt.gz
Total_Precipitation_Accumulation
3.12 3.32 3.31 2.90 3.02 2.81 2.63 2.48 2.88 3.26 3.04 2.87 2.59 2.87 3.00 3.18 3.88 5.16 4.82 3.29 4.47 4.90 2.08 1.14 1.16 0.95 1.26 1.63 2.51 2.18 2.62 2.91 3.54 3.98 3.24 2.42 1.48 1.04 0.86 0.76 0.89 1.34 2.16 2.40 2.53 2.73 1.50 0.25 0.23 0.62 0.67 0.38 0.89 1.46
2.99 3.20 2.91 2.55 2.67 2.67 2.54 2.35 2.33 2.46 2.76 2.83 2.54 2.62 2.82 2.85 3.35 4.53 5.91 4.18 3.95 6.25 3.47 1.15 0.87 0.73 0.66 0.93 1.46 2.50 2.53 1.98 2.64 3.10 2.71 2.21 1.93 1.54 1.01 1.06 1.07 1.37 1.52 1.63 1.75 1.67 0.78 0.31 0.34 0.36 0.34 0.58 1.07 1.23
2.79 2.90 2.88 2.52 2.38 2.28 2.30 2.40 2.37 2.17 2.08 2.51 2.52 2.43 2.70 2.74 3.05 3.84 5.13 4.23 5.76 6.83 4.42 1.60 1.22 0.77 0.47 0.60 0.96 2.75 1.58 1.55 2.06 1.96 2.63 2.29 1.91 1.21 1.23 1.05 1.08 0.89 0.83 1.48 1.13 0.56 0.34 0.33 0.27 0.23 0.24 0.33 0.96 0.93
2.74 2.78 2.76 2.70 2.30 2.12 1.93 2.17 2.53 2.33 2.26 2.22 2.56 2.42 2.54 2.93 3.26 3.65 4.58 4.34 5.89 6.58 5.01 2.10 0.92 0.93 0.86 0.59 0.80 1.03 0.85 1.09 1.62 2.16 3.21 2.85 1.81 1.09 1.08 0.78 0.83 1.20 1.32 1.18 0.99 0.58 0.47 0.31 0.27 0.33 0.38 0.53 0.58 0.86
2.76 2.91 2.85 2.65 2.34 2.08 1.92 2.13 2.61 2.57 2.71 2.66 2.68 2.84 2.92 3.35 3.63 3.91 4.22 3.79 4.25 4.48 3.96 2.50 1.13 0.71 0.92 0.85 0.83 0.87 1.12 1.43 1.85 2.86 3.19 1.93 0.94 1.12 0.81 0.84 1.11 0.94 1.39 1.41 1.40 0.73 0.88 0.57 0.62 0.74 0.69 0.52 0.61 0.47
3.00 2.82 2.56 2.48 2.21 2.19 2.13 2.43 2.57 2.67 2.77 3.27 3.04 3.12 3.42 3.85 4.44 6.79 8.70 5.31 3.43 3.57 5.43 3.43 2.19 1.00 1.18 1.28 1.42 1.43 1.26 1.78 2.35 2.66 1.89 1.18 0.79 1.58 1.66 0.91 0.55 0.39 0.86 1.32 1.57 1.04 1.04 0.93 0.88 0.54 0.53 0.56 0.61 0.58
2.88 2.79 2.53 2.31 2.05 2.22 2.48 2.54 2.64 2.56 2.97 3.42 3.30 2.80 2.95 4.13 5.47 6.80 4.63 3.23 2.36 4.10 6.48 3.85 2.50 1.59 1.46 1.64 1.71 2.40 2.32 2.66 2.39 2.64 1.79 0.77 0.72 2.01 1.85 0.62 0.23 0.31 0.42 0.78 1.46 1.63 1.76 1.30 1.34 0.96 0.47 0.36 0.44 0.28
2.87 2.71 2.43 2.15 1.95 1.96 2.54 2.78 2.81 3.09 3.52 3.87 3.48 3.20 3.86 5.47 6.15 4.34 1.74 2.12 2.80 4.83 5.03 4.02 2.78 2.95 2.11 2.44 2.13 1.89 2.77 3.35 3.53 2.68 1.44 0.95 0.95 1.61 1.43 0.16 0.09 0.21 0.25 0.36 0.50 0.41 0.79 0.84 0.64 0.52 0.26 0.11 0.09 0.14
2.54 2.44 2.43 2.03 1.76 1.79 2.13 2.53 3.00 3.69 4.07 4.89 5.29 6.02 8.45 9.56 7.44 3.42 2.16 3.40 4.21 6.19 5.31 2.68 1.79 2.97 2.53 2.52 2.60 2.24 2.57 3.69 3.03 2.73 1.44 1.35 1.44 1.38 0.46 0.20 0.19 0.16 0.22 0.26 0.20 0.29 0.29 0.32 0.27 0.18 0.18 0.19 0.27 0.24
2.51 2.36 2.36 1.99 1.77 1.80 2.14 2.64 3.31 4.59 6.00 7.34 9.22 10.81 10.95 6.24 3.00 3.67 6.96 7.98 7.87 6.11 3.92 1.86 0.96 2.26 3.05 2.68 3.40 3.65 3.56 2.59 2.47 1.26 1.20 1.59 0.86 0.51 0.40 0.37 0.28 0.17 0.10 0.16 0.38 0.51 0.45 0.33 0.28 0.22 0.23 0.24 0.24 0.21
2.44 2.41 2.04 1.92 1.97 2.23 2.73 3.25 4.20 6.46 8.71 9.14 8.91 6.99 5.32 3.67 4.24 5.83 7.27 6.03 4.69 3.35 1.56 0.86 0.73 1.27 1.81 2.44 2.75 3.13 3.39 2.54 2.14 1.02 1.16 1.32 0.90 0.73 0.69 0.66 0.48 0.40 0.24 0.17 0.17 0.19 0.22 0.28 0.36 0.35 0.23 0.15 0.13 0.20
2.39 2.03 1.72 1.81 1.88 2.12 2.49 3.70 4.96 6.21 6.28 4.60 4.29 4.86 5.85 5.84 6.03 5.62 4.38 2.90 1.64 0.91 0.65 0.55 0.99 1.50 1.82 2.49 3.47 3.59 2.93 2.32 1.48 1.37 1.82 1.17 1.03 0.66 0.50 0.61 0.36 0.21 0.16 0.16 0.23 0.31 0.34 0.32 0.29 0.37 0.40 0.45 0.53 0.61
2.12 1.69 1.48 1.54 1.69 2.11 3.04 3.80 3.42 3.18 2.97 3.43 4.12 5.29 5.50 5.30 4.79 3.21 2.05 1.35 0.82 0.53 0.53 0.59 1.48 1.79 2.03 2.55 3.90 4.05 3.63 2.35 1.58 2.71 1.74 1.03 0.78 0.93 0.75 0.51 0.34 0.23 0.31 0.45 0.38 0.28 0.28 0.27 0.31 0.51 0.73 0.84 0.82 0.78
1.86 1.67 1.63 1.71 1.89 2.44 3.51 3.66 4.00 3.76 3.94 4.04 4.13 4.13 3.06 2.57 1.68 0.93 0.67 0.60 0.49 0.47 0.66 0.99 1.58 1.95 2.08 2.54 2.64 2.77 2.34 2.44 2.51 1.72 1.40 1.49 1.25 0.94 0.64 0.61 0.67 0.73 0.66 0.72 0.86 0.56 0.48 0.46 0.47 0.61 0.80 0.87 0.83 0.91
1.76 1.65 1.83 2.28 2.39 2.80 3.43 3.91 4.14 4.11 3.96 3.35 2.39 1.91 1.18 1.11 0.80 0.60 0.52 0.51 0.56 0.85 1.35 2.09 2.08 2.13 2.64 3.20 2.16 2.00 2.09 1.86 1.42 1.69 1.93 1.51 1.08 0.87 0.89 0.87 0.88 1.19 1.11 1.09 1.27 1.32 1.19 1.02 0.87 1.12 1.16 1.03 0.89 0.92
1.79 2.52 2.66 2.32 2.39 2.97 3.77 4.40 4.84 4.17 3.39 1.95 1.62 1.40 1.22 1.11 0.91 0.84 0.78 0.93 1.05 1.37 1.93 2.61 2.52 2.16 2.43 1.90 2.03 1.55 1.44 1.84 2.03 1.89 1.55 0.96 0.78 0.83 0.86 0.89 0.91 1.06 1.16 1.21 1.22 1.36 1.52 1.60 1.64 1.73 1.72 1.51 1.40 1.21
2.43 3.33 2.45 2.34 2.86 3.75 4.18 4.38 4.04 3.91 2.47 1.61 1.37 0.98 1.12 1.23 0.94 0.96 1.00 1.12 1.21 1.84 2.07 2.41 2.56 1.83 1.78 1.57 1.17 1.41 2.03 2.01 1.50 1.20 0.85 0.70 0.83 0.87 0.80 0.74 0.79 0.82 1.02 1.12 1.15 1.25 1.39 1.52 1.45 1.29 1.38 1.52 1.30 1.28
2.63 1.98 1.89 2.36 3.10 4.13 3.87 2.88 2.67 2.09 1.56 1.25 1.27 1.26 0.88 1.04 1.19 1.05 0.94 1.08 1.32 1.63 1.73 1.97 1.60 1.14 1.19 1.33 1.64 1.85 1.83 1.46 1.00 0.90 0.86 0.89 0.91 0.99 0.82 0.65 0.78 0.82 0.88 1.14 1.08 1.18 1.19 1.03 0.88 1.07 1.09 1.15 1.04 1.17
2.03 1.57 1.48 1.73 2.12 3.38 3.51 2.39 1.48 1.61 1.37 1.15 1.05 0.93 0.83 1.11 1.34 1.25 1.15 1.08 1.05 1.14 1.72 1.46 1.33 0.94 0.99 1.38 1.69 1.46 1.27 1.07 1.05 1.13 1.17 1.24 1.14 0.97 0.94 0.87 0.87 1.02 0.96 1.14 1.03 1.01 1.09 1.01 0.86 0.82 0.88 0.85 0.81 0.95
2.14 2.02 1.58 1.50 2.16 3.26 2.42 1.60 0.91 1.13 1.40 1.16 0.94 0.79 0.79 1.13 1.13 0.98 0.77 0.75 0.87 1.20 1.56 1.46 1.18 1.28 1.51 1.44 1.55 1.52 1.33 1.22 1.02 0.91 1.12 1.32 1.43 1.09 1.03 1.04 1.11 1.12 1.00 1.02 1.08 1.08 1.02 0.97 0.94 0.71 0.62 0.75 0.83 0.87
2.37 2.51 1.95 1.80 2.62 2.38 1.73 1.23 1.19 0.86 1.14 1.22 0.85 0.65 0.91 0.66 0.63 0.62 0.51 0.38 0.77 1.12 1.27 1.25 1.34 1.30 1.36 1.47 1.33 1.11 1.04 0.84 0.87 0.81 0.82 0.98 1.21 0.86 0.94 0.99 0.92 0.94 0.84 0.89 0.89 1.08 0.91 0.78 0.79 0.69 0.60 0.62 0.73 0.79
1.94 1.74 2.44 2.08 2.28 1.98 1.84 0.86 0.76 0.91 1.09 1.17 0.79 0.76 0.85 0.78 0.60 0.51 0.41 0.64 1.09 1.30 1.21 1.21 1.17 1.12 0.97 1.10 1.17 1.05 1.20 0.85 0.79 0.76 0.81 0.75 0.86 0.87 0.92 1.00 0.76 0.76 0.76 0.73 0.68 0.87 0.80 0.66 0.66 0.67 0.67 0.61 0.50 0.46
1.27 1.43 2.13 2.00 1.95 1.37 1.01 0.80 1.02 1.02 1.17 1.21 0.73 0.78 0.78 0.65 0.53 0.43 0.89 0.86 1.19 1.41 1.18 0.94 1.02 1.05 1.03 1.20 0.92 0.86 1.06 0.82 0.92 1.11 1.05 0.97 0.92 0.96 0.84 0.85 0.74 0.68 0.72 0.72 0.60 0.60 0.62 0.54 0.55 0.60 0.56 0.49 0.41 0.37
1.31 1.94 1.88 1.76 1.27 0.90 0.62 0.82 0.97 1.03 0.94 0.96 0.91 0.96 0.82 0.59 0.39 0.66 0.89 1.02 1.22 0.86 0.70 0.83 0.82 0.95 1.05 0.94 0.95 1.03 1.34 1.09 1.03 1.17 1.15 0.91 0.75 0.86 0.74 0.72 0.54 0.52 0.55 0.57 0.49 0.52 0.54 0.51 0.44 0.42 0.42 0.40 0.36 0.43
2.97 2.17 1.35 1.14 0.81 0.81 0.59 0.50 0.59 0.81 1.02 0.92 1.02 1.13 1.15 0.78 1.01 0.97 0.97 1.20 0.85 0.73 0.74 0.78 0.78 0.78 0.82 0.99 1.08 1.01 1.03 1.05 1.05 1.06 1.21 1.01 0.91 0.83 0.74 0.66 0.59 0.55 0.47 0.51 0.62 0.63 0.60 0.58 0.53 0.40 0.27 0.29 0.43 0.40
1.82 1.00 0.99 0.73 0.69 0.74 0.74 0.66 0.71 0.67 0.83 0.99 0.89 0.69 0.54 0.80 0.93 1.16 1.14 1.21 0.89 0.89 0.91 0.94 0.91 0.75 0.77 0.89 0.92 0.77 0.76 0.82 0.85 0.77 1.05 0.94 0.98 1.04 0.95 0.80 0.75 0.75 0.47 0.50 0.63 0.59 0.51 0.45 0.41 0.41 0.44 0.38 0.33 0.37
1.12 0.54 0.36 0.26 0.30 0.38 0.46 0.49 0.53 0.59 0.75 0.86 0.85 0.67 0.92 1.04 0.90 0.93 0.89 0.88 0.88 0.97 0.80 0.77 0.72 0.76 0.83 0.83 0.82 0.73 0.58 0.52 0.57 0.74 0.87 0.79 0.78 0.89 1.02 1.14 1.09 1.00 0.63 0.52 0.51 0.55 0.57 0.52 0.50 0.47 0.50 0.48 0.45 0.48
0.65 0.28 0.28 0.27 0.29 0.32 0.42 0.47 0.63 0.63 0.60 0.52 0.72 0.77 0.86 0.78 0.96 1.02 0.95 0.90 0.72 0.62 0.47 0.42 0.39 0.40 0.46 0.55 0.60 0.56 0.49 0.52 0.56 0.53 0.51 0.58 0.65 0.83 0.83 0.77 0.72 0.66 0.66 0.64 0.59 0.55 0.55 0.56 0.53 0.53 0.53 0.56 0.51 0.42
0.47 0.34 0.33 0.42 0.40 0.46 0.65 0.65 0.69 0.56 0.44 0.47 0.66 0.72 0.69 0.73 0.99 0.86 0.73 0.59 0.56 0.47 0.41 0.37 0.38 0.26 0.24 0.24 0.29 0.36 0.45 0.47 0.50 0.51 0.45 0.58 0.70 0.76 0.58 0.55 0.55 0.60 0.64 0.65 0.64 0.64 0.59 0.53 0.47 0.47 0.55 0.62 0.56 0.54
0.28 0.27 0.41 0.33 0.39 0.53 0.67 0.42 0.49 0.36 0.24 0.23 0.35 0.55 0.55 0.85 1.06 0.82 0.59 0.48 0.41 0.43 0.41 0.35 0.34 0.29 0.28 0.28 0.31 0.31 0.45 0.47 0.45 0.55 0.55 0.47 0.54 0.53 0.46 0.52 0.58 0.57 0.60 0.65 0.73 0.77 0.77 0.73 0.73 0.78 0.68 0.60 0.65 0.68
0.16 0.22 0.30 0.33 0.56 0.77 0.58 0.48 0.47 0.36 0.25 0.21 0.26 0.51 0.65 0.76 0.75 0.53 0.39 0.44 0.37 0.33 0.28 0.26 0.30 0.31 0.29 0.32 0.43 0.45 0.52 0.47 0.35 0.35 0.43 0.44 0.42 0.43 0.44 0.45 0.47 0.52 0.55 0.57 0.60 0.70 0.82 0.83 0.86 0.84 0.76 0.64 0.61 0.56
0.24 0.30 0.32 0.35 0.64 0.64 0.60 0.63 0.50 0.47 0.42 0.40 0.57 0.57 0.66 0.52 0.58 0.72 0.48 0.39 0.37 0.28 0.29 0.31 0.33 0.39 0.43 0.52 0.61 0.62 0.56 0.48 0.35 0.31 0.31 0.36 0.43 0.45 0.43 0.37 0.38 0.40 0.42 0.42 0.46 0.56 0.62 0.74 0.92 0.81 0.72 0.72 0.68 0.63
0.39 0.30 0.32 0.37 0.44 0.43 0.39 0.47 0.40 0.51 0.53 0.62 0.71 0.55 0.50 0.47 0.61 0.77 0.50 0.42 0.55 0.47 0.42 0.48 0.51 0.53 0.56 0.55 0.56 0.52 0.46 0.45 0.42 0.41 0.36 0.34 0.36 0.37 0.36 0.35 0.33 0.33 0.31 0.33 0.35 0.40 0.43 0.50 0.63 0.71 0.77 0.79 0.83 0.81

GFSWCAN_prec_precacc_342.txt.gz
Total_Precipitation_Accumulation
3.17 3.43 3.50 3.06 3.06 2.81 2.63 2.48 2.88 3.26 3.04 2.87 2.59 2.87 3.00 3.18 3.88 5.16 4.82 3.29 4.48 4.90 2.08 1.14 1.16 0.95 1.26 1.63 2.51 2.18 2.63 2.93 3.55 4.00 3.39 2.49 1.48 1.04 0.86 0.76 0.89 1.34 2.16 2.40 2.53 2.73 1.50 0.25 0.23 0.62 0.67 0.38 0.89 1.46
3.15 3.28 3.02 2.70 2.72 2.67 2.54 2.35 2.33 2.46 2.76 2.83 2.54 2.62 2.82 2.86 3.35 4.53 5.91 4.18 3.95 6.25 3.47 1.15 0.87 0.73 0.66 0.93 1.46 2.50 2.55 2.03 2.71 3.12 2.73 2.26 1.96 1.54 1.01 1.06 1.07 1.37 1.52 1.63 1.75 1.67 0.78 0.31 0.34 0.36 0.34 0.58 1.07 1.23
2.98 3.14 2.98 2.60 2.41 2.28 2.30 2.40 2.37 2.17 2.08 2.51 2.52 2.43 2.70 2.75 3.05 3.85 5.13 4.23 5.76 6.83 4.42 1.60 1.22 0.77 0.47 0.60 0.96 2.75 1.58 1.58 2.24 2.21 2.74 2.32 1.92 1.22 1.23 1.05 1.08 0.89 0.83 1.48 1.13 0.56 0.34 0.33 0.27 0.23 0.24 0.33 0.96 0.93
2.95 3.02 2.91 2.77 2.31 2.12 1.93 2.17 2.53 2.33 2.26 2.22 2.56 2.42 2.54 2.94 3.27 3.66 4.58 4.34 5.89 6.58 5.01 2.10 0.92 0.93 0.86 0.59 0.80 1.03 0.85 1.09 1.66 2.31 3.47 3.00 1.85 1.11 1.09 0.78 0.83 1.20 1.32 1.18 0.99 0.58 0.47 0.31 0.27 0.33 0.38 0.53 0.58 0.86
2.97 3.13 2.98 2.72 2.35 2.08 1.92 2.13 2.61 2.57 2.71 2.66 2.68 2.84 2.92 3.36 3.64 3.91 4.22 3.79 4.25 4.48 3.96 2.50 1.13 0.71 0.92 0.85 0.83 0.87 1.12 1.43 1.86 2.88 3.33 2.10 1.02 1.16 0.82 0.84 1.11 0.94 1.39 1.41 1.40 0.73 0.88 0.57 0.62 0.74 0.69 0.52 0.61 0.47
3.11 3.05 2.70 2.54 2.23 2.19 2.13 2.43 2.57 2.67 2.77 3.27 3.04 3.13 3.43 3.85 4.45 6.79 8.70 5.31 3.43 3.58 5.44 3.43 2.19 1.00 1.18 1.28 1.42 1.43 1.26 1.78 2.36 2.68 1.90 1.20 0.81 1.66 1.69 0.91 0.55 0.39 0.86 1.32 1.57 1.04 1.04 0.93 0.88 0.54 0.53 0.56 0.61 0.58
2.97 2.96 2.77 2.40 2.06 2.22 2.48 2.54 2.64 2.56 2.97 3.42 3.30 2.80 2.95 4.13 5.47 6.80 4.63 3.23 2.36 4.11 6.49 3.86 2.50 1.59 1.46 1.64 1.71 2.40 2.32 2.66 2.39 2.65 1.79 0.77 0.72 2.04 1.88 0.62 0.23 0.31 0.42 0.78 1.46 1.63 1.76 1.30 1.34 0.96 0.47 0.36 0.44 0.28
2.95 2.84 2.70 2.39 2.00 1.96 2.54 2.78 2.81 3.09 3.52 3.87 3.48 3.20 3.86 5.48 6.16 4.34 1.74 2.12 2.80 4.85 5.04 4.03 2.78 2.95 2.11 2.44 2.13 1.89 2.78 3.37 3.54 2.69 1.46 0.96 0.96 1.61 1.44 0.16 0.09 0.21 0.25 0.36 0.50 0.41 0.79 0.84 0.64 0.52 0.26 0.11 0.09 0.14
2.72 2.59 2.63 2.29 1.85 1.80 2.13 2.53 3.00 3.69 4.07 4.89 5.29 6.02 8.46 9.56 7.45 3.42 2.16 3.41 4.21 6.24 5.46 2.71 1.80 2.97 2.54 2.52 2.60 2.25 2.59 3.73 3.05 2.74 1.44 1.36 1.44 1.39 0.46 0.20 0.19 0.16 0.22 0.26 0.21 0.29 0.29 0.32 0.27 0.18 0.18 0.19 0.27 0.24
2.62 2.59 2.54 2.19 1.84 1.80 2.14 2.64 3.31 4.59 6.00 7.34 9.22 10.81 10.96 6.24 3.00 3.68 6.97 7.99 7.88 6.11 3.94 1.88 0.96 2.26 3.07 2.69 3.43 3.69 3.58 2.61 2.49 1.27 1.20 1.60 0.86 0.51 0.40 0.37 0.28 0.17 0.10 0.16 0.38 0.51 0.45 0.33 0.28 0.22 0.23 0.24 0.24 0.21
2.48 2.62 2.26 2.12 2.03 2.23 2.73 3.25 4.20 6.46 8.72 9.14 8.91 6.99 5.32 3.68 4.24 5.84 7.29 6.07 4.69 3.36 1.57 0.86 0.73 1.27 1.81 2.45 2.77 3.25 3.51 2.56 2.15 1.02 1.16 1.32 0.90 0.73 0.69 0.66 0.48 0.40 0.24 0.17 0.17 0.19 0.22 0.28 0.36 0.35 0.23 0.15 0.13 0.20
2.42 2.14 1.91 2.02 1.95 2.14 2.49 3.70 4.96 6.21 6.28 4.61 4.29 4.86 5.87 5.86 6.05 5.63 4.39 2.91 1.64 0.91 0.65 0.55 0.99 1.50 1.82 2.50 3.47 3.61 3.07 2.53 1.51 1.40 1.85 1.17 1.03 0.66 0.50 0.61 0.36 0.21 0.16 0.16 0.23 0.31 0.34 0.32 0.29 0.37 0.40 0.45 0.53 0.61
2.17 1.76 1.64 1.73 1.77 2.14 3.05 3.80 3.42 3.18 2.97 3.43 4.12 5.29 5.51 5.32 4.89 3.22 2.06 1.35 0.83 0.54 0.53 0.59 1.48 1.79 2.03 2.55 3.91 4.08 3.75 2.44 1.64 2.76 1.75 1.03 0.78 0.93 0.75 0.51 0.34 0.23 0.31 0.45 0.38 0.28 0.28 0.27 0.31 0.51 0.73 0.84 0.82 0.78
1.93 1.73 1.79 1.86 1.96 2.49 3.52 3.66 4.00 3.76 3.94 4.04 4.13 4.13 3.06 2.58 1.70 0.94 0.67 0.60 0.50 0.49 0.67 0.99 1.59 1.97 2.10 2.55 2.64 2.78 2.37 2.57 2.68 1.74 1.41 1.49 1.25 0.94 0.64 0.61 0.67 0.73 0.66 0.72 0.86 0.56 0.48 0.46 0.47 0.61 0.80 0.87 0.83 0.91
1.84 1.76 2.01 2.41 2.45 2.84 3.44 3.92 4.15 4.11 3.96 3.35 2.39 1.91 1.18 1.11 0.80 0.60 0.54 0.52 0.56 0.86 1.37 2.11 2.11 2.16 2.68 3.32 2.20 2.00 2.09 1.87 1.45 1.73 1.96 1.53 1.09 0.88 0.89 0.87 0.88 1.19 1.11 1.09 1.27 1.32 1.19 1.02 0.87 1.12 1.16 1.03 0.89 0.92
1.91 2.73 2.87 2.41 2.41 2.98 3.77 4.40 4.85 4.18 3.40 1.95 1.62 1.40 1.22 1.12 0.91 0.85 0.80 0.98 1.07 1.38 1.95 2.66 2.56 2.20 2.51 1.94 2.13 1.56 1.44 1.85 2.04 1.92 1.56 0.97 0.79 0.83 0.86 0.89 0.91 1.06 1.16 1.21 1.22 1.36 1.52 1.60 1.64 1.73 1.72 1.51 1.40 1.21
2.65 3.59 2.57 2.36 2.86 3.75 4.19 4.39 4.05 3.94 2.50 1.61 1.37 0.98 1.12 1.23 0.94 0.97 1.02 1.14 1.22 1.86 2.10 2.44 2.57 1.83 1.81 1.63 1.24 1.46 2.07 2.03 1.51 1.21 0.86 0.70 0.83 0.87 0.80 0.74 0.79 0.82 1.02 1.12 1.15 1.25 1.39 1.52 1.45 1.29 1.38 1.52 1.30 1.28
2.67 2.00 1.91 2.37 3.11 4.15 3.88 2.88 2.67 2.12 1.58 1.26 1.27 1.26 0.88 1.04 1.19 1.05 0.95 1.12 1.33 1.64 1.74 1.98 1.60 1.14 1.19 1.34 1.82 1.93 1.85 1.48 1.03 0.91 0.86 0.89 0.91 0.99 0.82 0.65 0.78 0.82 0.88 1.14 1.08 1.18 1.19 1.03 0.88 1.07 1.09 1.15 1.04 1.17
2.04 1.59 1.50 1.74 2.12 3.38 3.53 2.41 1.48 1.62 1.37 1.15 1.05 0.93 0.83 1.11 1.34 1.25 1.16 1.11 1.08 1.15 1.74 1.46 1.33 0.94 0.99 1.38 1.69 1.47 1.28 1.07 1.05 1.13 1.17 1.24 1.14 0.97 0.94 0.87 0.87 1.02 0.96 1.14 1.03 1.01 1.09 1.01 0.86 0.82 0.88 0.85 0.81 0.95
2.15 2.03 1.58 1.50 2.16 3.26 2.43 1.60 0.91 1.14 1.40 1.16 0.94 0.79 0.79 1.13 1.13 0.98 0.77 0.76 0.90 1.22 1.57 1.46 1.18 1.28 1.51 1.44 1.55 1.52 1.33 1.24 1.03 0.92 1.13 1.33 1.44 1.09 1.03 1.04 1.12 1.12 1.00 1.02 1.08 1.08 1.02 0.97 0.94 0.71 0.62 0.76 0.84 0.88
2.43 2.55 1.97 1.81 2.63 2.38 1.74 1.24 1.19 0.86 1.14 1.22 0.85 0.65 0.91 0.66 0.63 0.62 0.51 0.38 0.77 1.13 1.27 1.25 1.34 1.30 1.36 1.47 1.33 1.11 1.04 0.84 0.88 0.82 0.84 0.99 1.22 0.87 0.95 1.01 0.94 0.97 0.85 0.90 0.90 1.08 0.91 0.78 0.80 0.70 0.61 0.64 0.78 0.88
2.05 1.86 2.58 2.15 2.31 1.99 1.85 0.87 0.76 0.91 1.10 1.17 0.80 0.78 0.86 0.78 0.60 0.51 0.41 0.64 1.09 1.30 1.21 1.21 1.17 1.12 0.97 1.10 1.17 1.05 1.20 0.85 0.79 0.76 0.81 0.75 0.87 0.88 0.96 1.08 0.82 0.81 0.82 0.80 0.73 0.90 0.86 0.73 0.75 0.78 0.79 0.79 0.69 0.62
1.35 1.46 2.16 2.04 1.98 1.41 1.02 0.80 1.03 1.03 1.17 1.21 0.73 0.80 0.79 0.65 0.53 0.43 0.89 0.86 1.19 1.41 1.18 0.94 1.02 1.05 1.03 1.20 0.92 0.86 1.06 0.82 0.92 1.11 1.06 0.97 0.94 0.98 0.89 0.97 0.84 0.77 0.82 0.86 0.71 0.69 0.75 0.70 0.73 0.83 0.84 0.75 0.64 0.58
1.32 1.96 1.92 1.77 1.29 0.93 0.63 0.83 0.99 1.05 0.95 0.97 0.91 0.96 0.82 0.59 0.39 0.66 0.89 1.02 1.22 0.86 0.70 0.83 0.82 0.95 1.05 0.94 0.95 1.03 1.34 1.09 1.03 1.21 1.22 0.97 0.81 0.94 0.83 0.82 0.64 0.62 0.64 0.72 0.71 0.72 0.70 0.66 0.63 0.64 0.62 0.58 0.52 0.52
3.02 2.22 1.37 1.17 0.83 0.83 0.60 0.51 0.60 0.82 1.02 0.92 1.02 1.14 1.15 0.78 1.01 0.97 0.97 1.20 0.85 0.73 0.74 0.78 0.78 0.78 0.82 0.99 1.08 1.01 1.03 1.05 1.06 1.11 1.30 1.14 1.09 0.99 0.86 0.82 0.73 0.65 0.57 0.66 0.83 0.83 0.76 0.74 0.69 0.54 0.40 0.38 0.50 0.44
1.88 1.03 1.00 0.74 0.71 0.75 0.74 0.66 0.71 0.67 0.83 0.99 0.89 0.69 0.54 0.80 0.93 1.16 1.14 1.21 0.89 0.89 0.92 0.95 0.91 0.75 0.77 0.89 0.92 0.77 0.77 0.82 0.85 0.77 1.06 1.02 1.07 1.09 1.06 0.98 0.94 0.96 0.62 0.63 0.78 0.75 0.68 0.58 0.53 0.51 0.52 0.44 0.37 0.39
1.16 0.56 0.36 0.26 0.30 0.38 0.46 0.49 0.53 0.59 0.75 0.86 0.85 0.67 0.92 1.04 0.90 0.93 0.89 0.90 0.92 1.10 0.94 0.81 0.72 0.76 0.83 0.83 0.82 0.73 0.58 0.52 0.57 0.74 0.88 0.86 0.85 0.94 1.07 1.27 1.23 1.16 0.84 0.69 0.63 0.65 0.68 0.62 0.58 0.53 0.55 0.52 0.47 0.49
0.65 0.28 0.28 0.27 0.29 0.32 0.42 0.47 0.63 0.63 0.60 0.52 0.72 0.77 0.86 0.78 0.97 1.08 1.09 1.01 0.76 0.63 0.51 0.43 0.39 0.40 0.46 0.55 0.60 0.56 0.49 0.52 0.56 0.53 0.51 0.59 0.66 0.85 0.89 0.89 0.79 0.73 0.78 0.78 0.71 0.68 0.66 0.64 0.60 0.58 0.55 0.57 0.52 0.42
0.48 0.34 0.33 0.42 0.40 0.46 0.65 0.65 0.69 0.56 0.44 0.47 0.66 0.72 0.69 0.73 0.99 0.86 0.73 0.59 0.56 0.47 0.41 0.37 0.38 0.26 0.24 0.24 0.29 0.36 0.45 0.47 0.50 0.51 0.46 0.59 0.72 0.80 0.63 0.65 0.66 0.67 0.70 0.74 0.74 0.72 0.66 0.59 0.51 0.49 0.55 0.62 0.56 0.54
0.29 0.27 0.41 0.33 0.39 0.53 0.67 0.42 0.49 0.36 0.24 0.23 0.35 0.55 0.55 0.85 1.06 0.82 0.59 0.48 0.41 0.43 0.41 0.35 0.34 0.29 0.28 0.28 0.31 0.31 0.45 0.47 0.45 0.55 0.55 0.47 0.54 0.55 0.48 0.59 0.68 0.67 0.68 0.73 0.81 0.88 0.86 0.78 0.75 0.78 0.68 0.60 0.65 0.68
0.17 0.22 0.30 0.33 0.56 0.77 0.58 0.48 0.47 0.36 0.25 0.21 0.26 0.51 0.65 0.76 0.75 0.53 0.39 0.44 0.37 0.33 0.28 0.26 0.30 0.32 0.29 0.33 0.43 0.45 0.52 0.47 0.35 0.35 0.43 0.45 0.43 0.44 0.45 0.48 0.54 0.60 0.64 0.64 0.63 0.72 0.84 0.84 0.86 0.84 0.76 0.64 0.61 0.56
0.24 0.30 0.32 0.35 0.64 0.64 0.60 0.63 0.50 0.47 0.42 0.40 0.57 0.57 0.66 0.52 0.58 0.72 0.48 0.39 0.37 0.28 0.30 0.31 0.33 0.39 0.43 0.52 0.61 0.62 0.56 0.48 0.35 0.31 0.31 0.37 0.43 0.45 0.44 0.40 0.42 0.45 0.46 0.45 0.47 0.57 0.62 0.74 0.92 0.81 0.72 0.72 0.68 0.63
0.39 0.30 0.32 0.37 0.44 0.43 0.39 0.47 0.40 0.51 0.53 0.62 0.71 0.55 0.50 0.47 0.61 0.77 0.50 0.42 0.55 0.47 0.42 0.48 0.51 0.53 0.56 0.55 0.56 0.52 0.46 0.45 0.42 0.42 0.36 0.34 0.36 0.37 0.38 0.37 0.35 0.35 0.34 0.35 0.36 0.41 0.43 0.50 0.63 0.71 0.77 0.79 0.83 0.81